Wetterdaten: Dienstag, 22.10.2019
Datum Zeit Temp. Aussen Temp. o. S. Temp +5cm Feuchte Auss Luftdruck Regen Sonnenschein Regendauer Solar Windben Empfang
22.10.2019 00:00 13,0 C 12,2 C 11,7 C 84 % 1021,6 hPa 0,0 l/m 0 min 0 min 0 W/m 3,2 km/h (1 Bft) 100,00 %
22.10.2019 00:02 13,0 C 12,2 C 11,7 C 84 % 1021,7 hPa 0,0 l/m 0 min 0 min 0 W/m 6,4 km/h (2 Bft) 95,24 %
22.10.2019 00:04 13,0 C 12,2 C 11,7 C 84 % 1021,6 hPa 0,0 l/m 0 min 0 min 0 W/m 12,9 km/h (3 Bft) 100,00 %
22.10.2019 00:08 13,0 C 12,2 C 11,7 C 84 % 1021,6 hPa 0,0 l/m 0 min 0 min 0 W/m 12,9 km/h (3 Bft) 100,00 %
22.10.2019 00:10 13,0 C 12,2 C 11,7 C 84 % 1021,7 hPa 0,0 l/m 0 min 0 min 0 W/m 6,4 km/h (2 Bft) 100,00 %
22.10.2019 00:12 13,0 C 12,2 C 11,7 C 84 % 1021,7 hPa 0,0 l/m 0 min 0 min 0 W/m 6,4 km/h (2 Bft) 100,00 %
22.10.2019 00:14 13,0 C 12,2 C 11,7 C 84 % 1021,7 hPa 0,0 l/m 0 min 0 min 0 W/m 3,2 km/h (1 Bft) 100,00 %
22.10.2019 00:16 13,0 C 12,2 C 11,7 C 84 % 1021,8 hPa 0,0 l/m 0 min 0 min 0 W/m 16,1 km/h (3 Bft) 100,00 %
22.10.2019 00:18 13,0 C 12,2 C 11,7 C 84 % 1021,8 hPa 0,0 l/m 0 min 0 min 0 W/m 12,9 km/h (3 Bft) 100,00 %
22.10.2019 00:20 13,0 C 12,2 C 11,7 C 84 % 1021,8 hPa 0,0 l/m 0 min 0 min 0 W/m 12,9 km/h (3 Bft) 97,87 %
22.10.2019 00:22 13,0 C 12,2 C 11,7 C 84 % 1021,8 hPa 0,0 l/m 0 min 0 min 0 W/m 6,4 km/h (2 Bft) 100,00 %
22.10.2019 00:24 13,0 C 12,2 C 11,7 C 84 % 1021,8 hPa 0,0 l/m 0 min 0 min 0 W/m 6,4 km/h (2 Bft) 97,83 %
22.10.2019 00:26 13,0 C 12,2 C 11,7 C 84 % 1021,8 hPa 0,0 l/m 0 min 0 min 0 W/m 12,9 km/h (3 Bft) 100,00 %
22.10.2019 00:28 13,0 C 12,2 C 11,7 C 84 % 1021,8 hPa 0,0 l/m 0 min 0 min 0 W/m 12,9 km/h (3 Bft) 100,00 %
22.10.2019 00:30 13,0 C 12,2 C 11,7 C 84 % 1021,8 hPa 0,0 l/m 0 min 0 min 0 W/m 12,9 km/h (3 Bft) 100,00 %
22.10.2019 00:32 13,0 C 12,2 C 11,7 C 84 % 1021,8 hPa 0,0 l/m 0 min 0 min 0 W/m 6,4 km/h (2 Bft) 100,00 %
22.10.2019 00:34 13,0 C 12,2 C 11,7 C 84 % 1021,8 hPa 0,0 l/m 0 min 0 min 0 W/m 16,1 km/h (3 Bft) 100,00 %
22.10.2019 00:36 13,0 C 12,2 C 11,7 C 84 % 1021,9 hPa 0,0 l/m 0 min 0 min 0 W/m 16,1 km/h (3 Bft) 100,00 %
22.10.2019 00:38 13,0 C 12,2 C 11,7 C 84 % 1021,9 hPa 0,0 l/m 0 min 0 min 0 W/m 3,2 km/h (1 Bft) 100,00 %
22.10.2019 00:40 13,0 C 12,2 C 11,7 C 84 % 1021,9 hPa 0,0 l/m 0 min 0 min 0 W/m 6,4 km/h (2 Bft) 100,00 %
22.10.2019 00:42 13,0 C 12,2 C 11,7 C 84 % 1021,9 hPa 0,0 l/m 0 min 0 min 0 W/m 19,3 km/h (3 Bft) 95,74 %
22.10.2019 00:44 13,0 C 12,2 C 11,7 C 84 % 1022,0 hPa 0,0 l/m 0 min 0 min 0 W/m 6,4 km/h (2 Bft) 100,00 %
22.10.2019 00:46 13,0 C 12,2 C 11,7 C 84 % 1022,0 hPa 0,0 l/m 0 min 0 min 0 W/m 3,2 km/h (1 Bft) 97,83 %
22.10.2019 00:48 13,0 C 12,2 C 11,7 C 84 % 1022,0 hPa 0,0 l/m 0 min 0 min 0 W/m 12,9 km/h (3 Bft) 100,00 %
22.10.2019 00:50 13,0 C 12,2 C 11,7 C 84 % 1022,0 hPa 0,0 l/m 0 min 0 min 0 W/m 19,3 km/h (3 Bft) 100,00 %
22.10.2019 00:52 13,0 C 12,2 C 11,7 C 84 % 1021,9 hPa 0,0 l/m 0 min 0 min 0 W/m 12,9 km/h (3 Bft) 100,00 %
22.10.2019 00:54 13,0 C 12,2 C 11,7 C 84 % 1021,9 hPa 0,0 l/m 0 min 0 min 0 W/m 3,2 km/h (1 Bft) 97,87 %
22.10.2019 00:56 13,0 C 12,2 C 11,7 C 84 % 1021,9 hPa 0,0 l/m 0 min 0 min 0 W/m 6,4 km/h (2 Bft) 93,62 %
22.10.2019 00:58 12,9 C 12,2 C 11,7 C 84 % 1021,9 hPa 0,0 l/m 0 min 0 min 0 W/m 6,4 km/h (2 Bft) 97,83 %
22.10.2019 01:00 13,0 C 12,2 C 11,7 C 84 % 1021,9 hPa 0,0 l/m 0 min 0 min 0 W/m 3,2 km/h (1 Bft) 97,87 %
22.10.2019 01:02 13,0 C 12,2 C 11,7 C 84 % 1021,9 hPa 0,0 l/m 0 min 0 min 0 W/m 6,4 km/h (2 Bft) 97,87 %
22.10.2019 01:04 12,9 C 12,2 C 11,7 C 84 % 1021,9 hPa 0,0 l/m 0 min 0 min 0 W/m 16,1 km/h (3 Bft) 97,87 %
22.10.2019 01:06 12,9 C 12,2 C 11,7 C 84 % 1022,0 hPa 0,0 l/m 0 min 0 min 0 W/m 3,2 km/h (1 Bft) 53,49 %
22.10.2019 01:08 12,9 C 12,2 C 11,7 C 84 % 1022,0 hPa 0,0 l/m 0 min 0 min 0 W/m 6,4 km/h (2 Bft) 97,83 %
22.10.2019 01:10 12,9 C 12,2 C 11,7 C 84 % 1022,0 hPa 0,0 l/m 0 min 0 min 0 W/m 12,9 km/h (3 Bft) 97,87 %
22.10.2019 01:12 12,9 C 12,2 C 11,7 C 84 % 1021,9 hPa 0,0 l/m 0 min 0 min 0 W/m 16,1 km/h (3 Bft) 97,87 %
22.10.2019 01:14 12,9 C 12,2 C 11,7 C 85 % 1022,0 hPa 0,0 l/m 0 min 0 min 0 W/m 6,4 km/h (2 Bft) 95,74 %
22.10.2019 01:16 12,9 C 12,2 C 11,7 C 85 % 1022,0 hPa 0,0 l/m 0 min 0 min 0 W/m 6,4 km/h (2 Bft) 97,87 %
22.10.2019 01:18 12,9 C 12,2 C 11,7 C 85 % 1022,0 hPa 0,0 l/m 0 min 0 min 0 W/m 12,9 km/h (3 Bft) 97,87 %
22.10.2019 01:20 12,9 C 12,2 C 11,7 C 85 % 1022,0 hPa 0,0 l/m 0 min 0 min 0 W/m 16,1 km/h (3 Bft) 97,83 %
22.10.2019 01:22 12,9 C 12,2 C 11,7 C 85 % 1022,0 hPa 0,0 l/m 0 min 0 min 0 W/m 12,9 km/h (3 Bft) 97,87 %
22.10.2019 01:24 12,9 C 12,2 C 11,7 C 85 % 1022,0 hPa 0,0 l/m 0 min 0 min 0 W/m 12,9 km/h (3 Bft) 97,87 %
22.10.2019 01:26 12,9 C 12,2 C 11,7 C 85 % 1022,0 hPa 0,0 l/m 0 min 0 min 0 W/m 16,1 km/h (3 Bft) 97,87 %
22.10.2019 01:28 12,9 C 12,2 C 11,7 C 85 % 1022,0 hPa 0,0 l/m 0 min 0 min 0 W/m 22,5 km/h (4 Bft) 97,87 %
22.10.2019 01:30 12,9 C 12,2 C 11,7 C 85 % 1022,1 hPa 0,0 l/m 0 min 0 min 0 W/m 12,9 km/h (3 Bft) 97,87 %
22.10.2019 01:32 12,9 C 12,2 C 11,7 C 85 % 1022,1 hPa 0,0 l/m 0 min 0 min 0 W/m 6,4 km/h (2 Bft) 95,65 %
22.10.2019 01:34 12,9 C 12,2 C 11,7 C 85 % 1022,1 hPa 0,0 l/m 0 min 0 min 0 W/m 12,9 km/h (3 Bft) 97,87 %
22.10.2019 01:36 12,9 C 12,2 C 11,7 C 85 % 1022,1 hPa 0,0 l/m 0 min 0 min 0 W/m 6,4 km/h (2 Bft) 95,74 %
22.10.2019 01:38 12,9 C 12,2 C 11,7 C 85 % 1022,1 hPa 0,0 l/m 0 min 0 min 0 W/m 6,4 km/h (2 Bft) 97,87 %
22.10.2019 01:40 12,9 C 12,2 C 11,7 C 85 % 1022,2 hPa 0,0 l/m 0 min 0 min 0 W/m 19,3 km/h (3 Bft) 97,87 %
22.10.2019 01:42 12,9 C 12,2 C 11,7 C 85 % 1022,2 hPa 0,0 l/m 0 min 0 min 0 W/m 19,3 km/h (3 Bft) 95,74 %
22.10.2019 01:44 12,9 C 12,2 C 11,7 C 84 % 1022,2 hPa 0,0 l/m 0 min 0 min 0 W/m 16,1 km/h (3 Bft) 100,00 %
22.10.2019 01:46 12,9 C 12,2 C 11,7 C 84 % 1022,2 hPa 0,0 l/m 0 min 0 min 0 W/m 12,9 km/h (3 Bft) 97,87 %
22.10.2019 01:48 12,9 C 12,2 C 11,7 C 84 % 1022,2 hPa 0,0 l/m 0 min 0 min 0 W/m 16,1 km/h (3 Bft) 97,87 %
22.10.2019 01:50 12,9 C 12,2 C 11,7 C 84 % 1022,2 hPa 0,0 l/m 0 min 0 min 0 W/m 12,9 km/h (3 Bft) 97,87 %
22.10.2019 01:52 12,9 C 12,2 C 11,7 C 85 % 1022,2 hPa 0,0 l/m 0 min 0 min 0 W/m 6,4 km/h (2 Bft) 97,87 %
22.10.2019 01:54 12,9 C 12,2 C 11,7 C 85 % 1022,2 hPa 0,0 l/m 0 min 0 min 0 W/m 16,1 km/h (3 Bft) 97,87 %
22.10.2019 01:56 12,9 C 12,2 C 11,7 C 85 % 1022,2 hPa 0,0 l/m 0 min 0 min 0 W/m 6,4 km/h (2 Bft) 97,83 %
22.10.2019 01:58 12,9 C 12,2 C 11,7 C 85 % 1022,2 hPa 0,0 l/m 0 min 0 min 0 W/m 12,9 km/h (3 Bft) 97,83 %
22.10.2019 02:00 12,9 C 12,2 C 11,7 C 85 % 1022,1 hPa 0,0 l/m 0 min 0 min 0 W/m 6,4 km/h (2 Bft) 95,74 %
22.10.2019 02:02 12,9 C 12,2 C 11,7 C 85 % 1022,1 hPa 0,0 l/m 0 min 0 min 0 W/m 6,4 km/h (2 Bft) 93,62 %
22.10.2019 02:04 12,9 C 12,2 C 11,7 C 85 % 1022,1 hPa 0,0 l/m 0 min 0 min 0 W/m 3,2 km/h (1 Bft) 95,74 %
22.10.2019 02:06 12,9 C 12,2 C 11,7 C 85 % 1022,1 hPa 0,0 l/m 0 min 0 min 0 W/m 9,7 km/h (2 Bft) 93,62 %
22.10.2019 02:08 12,9 C 12,2 C 11,7 C 85 % 1022,1 hPa 0,0 l/m 0 min 0 min 0 W/m 3,2 km/h (1 Bft) 93,48 %
22.10.2019 02:10 12,9 C 11,7 C 11,7 C 85 % 1022,1 hPa 0,0 l/m 0 min 0 min 0 W/m 3,2 km/h (1 Bft) 97,87 %
22.10.2019 02:12 12,9 C 11,7 C 11,7 C 85 % 1022,2 hPa 0,0 l/m 0 min 0 min 0 W/m 6,4 km/h (2 Bft) 95,74 %
22.10.2019 02:14 12,9 C 12,2 C 11,7 C 85 % 1022,2 hPa 0,0 l/m 0 min 0 min 0 W/m 19,3 km/h (3 Bft) 95,74 %
22.10.2019 02:16 12,9 C 12,2 C 11,7 C 85 % 1022,2 hPa 0,0 l/m 0 min 0 min 0 W/m 6,4 km/h (2 Bft) 95,74 %
22.10.2019 02:18 12,9 C 12,2 C 11,7 C 85 % 1022,2 hPa 0,0 l/m 0 min 0 min 0 W/m 12,9 km/h (3 Bft) 93,62 %
22.10.2019 02:20 12,9 C 12,2 C 11,7 C 85 % 1022,3 hPa 0,0 l/m 0 min 0 min 0 W/m 12,9 km/h (3 Bft) 95,65 %
22.10.2019 02:22 12,8 C 11,7 C 11,7 C 85 % 1022,3 hPa 0,0 l/m 0 min 0 min 0 W/m 12,9 km/h (3 Bft) 95,74 %
22.10.2019 02:24 12,8 C 12,2 C 11,7 C 85 % 1022,4 hPa 0,0 l/m 0 min 0 min 0 W/m 12,9 km/h (3 Bft) 93,62 %
22.10.2019 02:26 12,8 C 12,2 C 11,7 C 85 % 1022,4 hPa 0,0 l/m 0 min 0 min 0 W/m 6,4 km/h (2 Bft) 95,74 %
22.10.2019 02:28 12,8 C 12,2 C 11,7 C 85 % 1022,4 hPa 0,0 l/m 0 min 0 min 0 W/m 16,1 km/h (3 Bft) 95,74 %
22.10.2019 02:30 12,8 C 12,2 C 11,7 C 85 % 1022,4 hPa 0,0 l/m 0 min 0 min 0 W/m 12,9 km/h (3 Bft) 95,65 %
22.10.2019 02:32 12,8 C 11,7 C 11,7 C 85 % 1022,4 hPa 0,0 l/m 0 min 0 min 0 W/m 19,3 km/h (3 Bft) 95,74 %
22.10.2019 02:34 12,8 C 11,7 C 11,7 C 85 % 1022,4 hPa 0,0 l/m 0 min 0 min 0 W/m 6,4 km/h (2 Bft) 93,62 %
22.10.2019 02:36 12,8 C 11,7 C 11,7 C 85 % 1022,4 hPa 0,0 l/m 0 min 0 min 0 W/m 12,9 km/h (3 Bft) 95,74 %
22.10.2019 02:38 12,8 C 11,7 C 11,7 C 85 % 1022,4 hPa 0,0 l/m 0 min 0 min 0 W/m 16,1 km/h (3 Bft) 93,62 %
22.10.2019 02:40 12,8 C 11,7 C 11,7 C 85 % 1022,5 hPa 0,0 l/m 0 min 0 min 0 W/m 16,1 km/h (3 Bft) 95,74 %
22.10.2019 02:42 12,8 C 11,7 C 11,7 C 85 % 1022,4 hPa 0,0 l/m 0 min 0 min 0 W/m 16,1 km/h (3 Bft) 95,65 %
22.10.2019 02:44 12,7 C 11,7 C 11,7 C 85 % 1022,5 hPa 0,0 l/m 0 min 0 min 0 W/m 12,9 km/h (3 Bft) 95,74 %
22.10.2019 02:46 12,7 C 11,7 C 11,7 C 85 % 1022,5 hPa 0,0 l/m 0 min 0 min 0 W/m 9,7 km/h (2 Bft) 96,00 %
22.10.2019 02:48 12,7 C 11,7 C 11,7 C 85 % 1022,5 hPa 0,0 l/m 0 min 0 min 0 W/m 12,9 km/h (3 Bft) 95,74 %
22.10.2019 02:50 12,7 C 11,7 C 11,7 C 85 % 1022,5 hPa 0,0 l/m 0 min 0 min 0 W/m 12,9 km/h (3 Bft) 100,00 %
22.10.2019 02:52 12,7 C 11,7 C 11,7 C 85 % 1022,4 hPa 0,0 l/m 0 min 0 min 0 W/m 16,1 km/h (3 Bft) 100,00 %
22.10.2019 02:54 12,7 C 11,7 C 11,1 C 85 % 1022,4 hPa 0,0 l/m 0 min 0 min 0 W/m 12,9 km/h (3 Bft) 100,00 %
22.10.2019 02:56 12,7 C 11,7 C 11,1 C 86 % 1022,4 hPa 0,0 l/m 0 min 0 min 0 W/m 12,9 km/h (3 Bft) 100,00 %
22.10.2019 02:58 12,7 C 11,7 C 11,1 C 86 % 1022,4 hPa 0,0 l/m 0 min 0 min 0 W/m 16,1 km/h (3 Bft) 100,00 %
22.10.2019 03:00 12,7 C 11,7 C 11,1 C 85 % 1022,4 hPa 0,0 l/m 0 min 0 min 0 W/m 6,4 km/h (2 Bft) 100,00 %
22.10.2019 03:02 12,6 C 11,7 C 11,1 C 85 % 1022,3 hPa 0,0 l/m 0 min 0 min 0 W/m 6,4 km/h (2 Bft) 100,00 %
22.10.2019 03:04 12,6 C 11,7 C 11,1 C 85 % 1022,4 hPa 0,0 l/m 0 min 0 min 0 W/m 6,4 km/h (2 Bft) 100,00 %
22.10.2019 03:06 12,6 C 11,7 C 11,1 C 86 % 1022,3 hPa 0,0 l/m 0 min 0 min 0 W/m 16,1 km/h (3 Bft) 100,00 %
22.10.2019 03:08 12,6 C 11,7 C 11,1 C 86 % 1022,4 hPa 0,0 l/m 0 min 0 min 0 W/m 16,1 km/h (3 Bft) 100,00 %
22.10.2019 03:10 12,6 C 11,7 C 11,1 C 86 % 1022,4 hPa 0,0 l/m 0 min 0 min 0 W/m 12,9 km/h (3 Bft) 97,87 %
22.10.2019 03:12 12,6 C 11,7 C 11,1 C 86 % 1022,4 hPa 0,0 l/m 0 min 0 min 0 W/m 6,4 km/h (2 Bft) 97,87 %
22.10.2019 03:14 12,6 C 11,7 C 11,1 C 86 % 1022,4 hPa 0,0 l/m 0 min 0 min 0 W/m 16,1 km/h (3 Bft) 97,87 %
22.10.2019 03:16 12,5 C 11,7 C 11,1 C 86 % 1022,4 hPa 0,0 l/m 0 min 0 min 0 W/m 12,9 km/h (3 Bft) 100,00 %
22.10.2019 03:18 12,5 C 11,7 C 11,1 C 86 % 1022,5 hPa 0,0 l/m 0 min 0 min 0 W/m 3,2 km/h (1 Bft) 100,00 %
22.10.2019 03:20 12,5 C 11,7 C 11,1 C 86 % 1022,4 hPa 0,0 l/m 0 min 0 min 0 W/m 6,4 km/h (2 Bft) 100,00 %
22.10.2019 03:22 12,4 C 11,7 C 11,1 C 86 % 1022,4 hPa 0,0 l/m 0 min 0 min 0 W/m 12,9 km/h (3 Bft) 100,00 %
22.10.2019 03:24 12,4 C 11,7 C 11,1 C 86 % 1022,5 hPa 0,0 l/m 0 min 0 min 0 W/m 12,9 km/h (3 Bft) 97,87 %
22.10.2019 03:26 12,4 C 11,7 C 11,1 C 86 % 1022,6 hPa 0,0 l/m 0 min 0 min 0 W/m 16,1 km/h (3 Bft) 100,00 %
22.10.2019 03:28 12,4 C 11,7 C 11,1 C 87 % 1022,6 hPa 0,0 l/m 0 min 0 min 0 W/m 12,9 km/h (3 Bft) 100,00 %
22.10.2019 03:30 12,4 C 11,7 C 11,1 C 86 % 1022,5 hPa 0,0 l/m 0 min 0 min 0 W/m 12,9 km/h (3 Bft) 97,87 %
22.10.2019 03:32 12,4 C 11,7 C 11,1 C 86 % 1022,6 hPa 0,0 l/m 0 min 0 min 0 W/m 6,4 km/h (2 Bft) 100,00 %
22.10.2019 03:34 12,4 C 11,7 C 11,1 C 87 % 1022,6 hPa 0,0 l/m 0 min 0 min 0 W/m 16,1 km/h (3 Bft) 100,00 %
22.10.2019 03:36 12,4 C 11,7 C 11,1 C 87 % 1022,6 hPa 0,0 l/m 0 min 0 min 0 W/m 6,4 km/h (2 Bft) 100,00 %
22.10.2019 03:38 12,4 C 11,7 C 11,1 C 87 % 1022,6 hPa 0,0 l/m 0 min 0 min 0 W/m 12,9 km/h (3 Bft) 97,87 %
22.10.2019 03:40 12,4 C 11,7 C 11,1 C 87 % 1022,6 hPa 0,0 l/m 0 min 0 min 0 W/m 12,9 km/h (3 Bft) 97,83 %
22.10.2019 03:42 12,4 C 11,7 C 11,1 C 87 % 1022,6 hPa 0,0 l/m 0 min 0 min 0 W/m 6,4 km/h (2 Bft) 97,87 %
22.10.2019 03:44 12,4 C 11,7 C 11,1 C 87 % 1022,6 hPa 0,0 l/m 0 min 0 min 0 W/m 3,2 km/h (1 Bft) 97,87 %
22.10.2019 03:46 12,4 C 11,7 C 11,1 C 87 % 1022,5 hPa 0,0 l/m 0 min 0 min 0 W/m 6,4 km/h (2 Bft) 95,74 %
22.10.2019 03:48 12,4 C 11,7 C 11,1 C 87 % 1022,5 hPa 0,0 l/m 0 min 0 min 0 W/m 3,2 km/h (1 Bft) 95,74 %
22.10.2019 03:50 12,4 C 11,7 C 11,1 C 87 % 1022,5 hPa 0,0 l/m 0 min 0 min 0 W/m 12,9 km/h (3 Bft) 97,87 %
22.10.2019 03:52 12,4 C 11,7 C 11,1 C 87 % 1022,5 hPa 0,0 l/m 0 min 0 min 0 W/m 12,9 km/h (3 Bft) 97,83 %
22.10.2019 03:54 12,3 C 11,7 C 11,1 C 87 % 1022,5 hPa 0,0 l/m 0 min 0 min 0 W/m 12,9 km/h (3 Bft) 97,87 %
22.10.2019 03:56 12,3 C 11,7 C 11,1 C 87 % 1022,5 hPa 0,0 l/m 0 min 0 min 0 W/m 12,9 km/h (3 Bft) 97,87 %
22.10.2019 03:58 12,3 C 11,7 C 11,1 C 87 % 1022,5 hPa 0,0 l/m 0 min 0 min 0 W/m 16,1 km/h (3 Bft) 97,87 %
22.10.2019 04:00 12,3 C 11,7 C 11,1 C 87 % 1022,5 hPa 0,0 l/m 0 min 0 min 0 W/m 22,5 km/h (4 Bft) 97,87 %
22.10.2019 04:02 12,3 C 11,7 C 11,1 C 87 % 1022,5 hPa 0,0 l/m 0 min 0 min 0 W/m 6,4 km/h (2 Bft) 100,00 %
22.10.2019 04:04 12,3 C 11,7 C 11,1 C 87 % 1022,5 hPa 0,0 l/m 0 min 0 min 0 W/m 16,1 km/h (3 Bft) 97,83 %
22.10.2019 04:06 12,3 C 11,7 C 11,1 C 87 % 1022,5 hPa 0,0 l/m 0 min 0 min 0 W/m 6,4 km/h (2 Bft) 95,74 %
22.10.2019 04:08 12,3 C 11,7 C 11,1 C 87 % 1022,5 hPa 0,0 l/m 0 min 0 min 0 W/m 12,9 km/h (3 Bft) 97,87 %
22.10.2019 04:10 12,3 C 11,7 C 11,1 C 87 % 1022,5 hPa 0,0 l/m 0 min 0 min 0 W/m 12,9 km/h (3 Bft) 97,87 %
22.10.2019 04:12 12,3 C 11,7 C 11,1 C 87 % 1022,5 hPa 0,0 l/m 0 min 0 min 0 W/m 16,1 km/h (3 Bft) 97,87 %
22.10.2019 04:14 12,3 C 11,7 C 11,1 C 87 % 1022,4 hPa 0,0 l/m 0 min 0 min 0 W/m 6,4 km/h (2 Bft) 97,83 %
22.10.2019 04:16 12,4 C 11,7 C 11,1 C 87 % 1022,4 hPa 0,0 l/m 0 min 0 min 0 W/m 6,4 km/h (2 Bft) 97,87 %
22.10.2019 04:18 12,4 C 11,7 C 11,1 C 87 % 1022,4 hPa 0,0 l/m 0 min 0 min 0 W/m 6,4 km/h (2 Bft) 97,87 %
22.10.2019 04:20 12,4 C 11,7 C 11,1 C 87 % 1022,4 hPa 0,0 l/m 0 min 0 min 0 W/m 3,2 km/h (1 Bft) 97,87 %
22.10.2019 04:22 12,4 C 11,7 C 11,1 C 87 % 1022,4 hPa 0,0 l/m 0 min 0 min 0 W/m 16,1 km/h (3 Bft) 100,00 %
22.10.2019 04:24 12,4 C 11,7 C 11,1 C 87 % 1022,5 hPa 0,0 l/m 0 min 0 min 0 W/m 6,4 km/h (2 Bft) 100,00 %
22.10.2019 04:26 12,4 C 11,7 C 11,1 C 87 % 1022,5 hPa 0,0 l/m 0 min 0 min 0 W/m 3,2 km/h (1 Bft) 100,00 %
22.10.2019 04:28 12,4 C 11,7 C 11,1 C 87 % 1022,5 hPa 0,0 l/m 0 min 0 min 0 W/m 6,4 km/h (2 Bft) 100,00 %
22.10.2019 04:30 12,4 C 11,7 C 11,1 C 87 % 1022,4 hPa 0,0 l/m 0 min 0 min 0 W/m 9,7 km/h (2 Bft) 100,00 %
22.10.2019 04:32 12,4 C 11,7 C 11,1 C 87 % 1022,4 hPa 0,0 l/m 0 min 0 min 0 W/m 6,4 km/h (2 Bft) 100,00 %
22.10.2019 04:34 12,4 C 11,7 C 11,1 C 87 % 1022,4 hPa 0,0 l/m 0 min 0 min 0 W/m 6,4 km/h (2 Bft) 97,87 %
22.10.2019 04:36 12,4 C 11,7 C 11,1 C 87 % 1022,4 hPa 0,0 l/m 0 min 0 min 0 W/m 3,2 km/h (1 Bft) 100,00 %
22.10.2019 04:38 12,4 C 11,7 C 11,1 C 87 % 1022,3 hPa 0,0 l/m 0 min 0 min 0 W/m 6,4 km/h (2 Bft) 97,83 %
22.10.2019 04:40 12,4 C 11,7 C 11,1 C 87 % 1022,3 hPa 0,0 l/m 0 min 0 min 0 W/m 3,2 km/h (1 Bft) 100,00 %
22.10.2019 04:42 12,4 C 11,7 C 11,1 C 87 % 1022,3 hPa 0,0 l/m 0 min 0 min 0 W/m 12,9 km/h (3 Bft) 100,00 %
22.10.2019 04:44 12,4 C 11,7 C 11,1 C 87 % 1022,2 hPa 0,0 l/m 0 min 0 min 0 W/m 12,9 km/h (3 Bft) 97,87 %
22.10.2019 04:46 12,4 C 11,7 C 11,1 C 87 % 1022,2 hPa 0,0 l/m 0 min 0 min 0 W/m 6,4 km/h (2 Bft) 100,00 %
22.10.2019 04:48 12,4 C 11,7 C 11,1 C 87 % 1022,3 hPa 0,0 l/m 0 min 0 min 0 W/m 12,9 km/h (3 Bft) 100,00 %
22.10.2019 04:50 12,4 C 11,7 C 11,1 C 87 % 1022,2 hPa 0,0 l/m 0 min 0 min 0 W/m 12,9 km/h (3 Bft) 100,00 %
22.10.2019 04:52 12,4 C 11,7 C 11,1 C 87 % 1022,3 hPa 0,0 l/m 0 min 0 min 0 W/m 3,2 km/h (1 Bft) 100,00 %
22.10.2019 04:54 12,3 C 11,7 C 11,1 C 87 % 1022,2 hPa 0,0 l/m 0 min 0 min 0 W/m 3,2 km/h (1 Bft) 97,87 %
22.10.2019 04:56 12,4 C 11,7 C 11,1 C 87 % 1022,1 hPa 0,0 l/m 0 min 0 min 0 W/m 3,2 km/h (1 Bft) 97,87 %
22.10.2019 04:58 12,4 C 11,7 C 11,1 C 87 % 1022,1 hPa 0,0 l/m 0 min 0 min 0 W/m 12,9 km/h (3 Bft) 95,74 %
22.10.2019 05:00 12,3 C 11,7 C 11,1 C 87 % 1022,1 hPa 0,0 l/m 0 min 0 min 0 W/m 12,9 km/h (3 Bft) 97,87 %
22.10.2019 05:02 12,4 C 11,7 C 11,1 C 87 % 1022,1 hPa 0,0 l/m 0 min 0 min 0 W/m 12,9 km/h (3 Bft) 95,65 %
22.10.2019 05:04 12,3 C 11,7 C 11,1 C 87 % 1022,2 hPa 0,0 l/m 0 min 0 min 0 W/m 16,1 km/h (3 Bft) 97,87 %
22.10.2019 05:06 12,3 C 11,7 C 11,1 C 87 % 1022,2 hPa 0,0 l/m 0 min 0 min 0 W/m 6,4 km/h (2 Bft) 100,00 %
22.10.2019 05:08 12,3 C 11,7 C 11,1 C 87 % 1022,3 hPa 0,0 l/m 0 min 0 min 0 W/m 12,9 km/h (3 Bft) 97,87 %
22.10.2019 05:10 12,3 C 11,7 C 11,1 C 87 % 1022,4 hPa 0,0 l/m 0 min 0 min 0 W/m 3,2 km/h (1 Bft) 97,87 %
22.10.2019 05:12 12,3 C 11,7 C 11,1 C 87 % 1022,4 hPa 0,0 l/m 0 min 0 min 0 W/m 6,4 km/h (2 Bft) 95,74 %
22.10.2019 05:14 12,4 C 11,7 C 11,1 C 87 % 1022,4 hPa 0,0 l/m 0 min 0 min 0 W/m 12,9 km/h (3 Bft) 97,83 %
22.10.2019 05:16 12,3 C 11,7 C 11,1 C 87 % 1022,4 hPa 0,0 l/m 0 min 0 min 0 W/m 12,9 km/h (3 Bft) 97,87 %
22.10.2019 05:18 12,3 C 11,7 C 11,1 C 87 % 1022,4 hPa 0,0 l/m 0 min 0 min 0 W/m 16,1 km/h (3 Bft) 97,87 %
22.10.2019 05:20 12,3 C 11,7 C 11,1 C 87 % 1022,4 hPa 0,0 l/m 0 min 0 min 0 W/m 3,2 km/h (1 Bft) 97,87 %
22.10.2019 05:22 12,3 C 11,7 C 11,1 C 87 % 1022,4 hPa 0,0 l/m 0 min 0 min 0 W/m 3,2 km/h (1 Bft) 97,87 %
22.10.2019 05:24 12,3 C 11,7 C 11,1 C 87 % 1022,4 hPa 0,0 l/m 0 min 0 min 0 W/m 6,4 km/h (2 Bft) 93,48 %
22.10.2019 05:26 12,3 C 11,7 C 11,1 C 87 % 1022,4 hPa 0,0 l/m 0 min 0 min 0 W/m 12,9 km/h (3 Bft) 95,74 %
22.10.2019 05:28 12,3 C 11,7 C 11,1 C 87 % 1022,5 hPa 0,0 l/m 0 min 0 min 0 W/m 3,2 km/h (1 Bft) 95,74 %
22.10.2019 05:30 12,3 C 11,7 C 11,1 C 87 % 1022,6 hPa 0,0 l/m 0 min 0 min 0 W/m 12,9 km/h (3 Bft) 95,74 %
22.10.2019 05:32 12,3 C 11,7 C 11,1 C 87 % 1022,5 hPa 0,0 l/m 0 min 0 min 0 W/m 16,1 km/h (3 Bft) 93,62 %
22.10.2019 05:34 12,3 C 11,7 C 11,1 C 87 % 1022,6 hPa 0,0 l/m 0 min 0 min 0 W/m 6,4 km/h (2 Bft) 93,62 %
22.10.2019 05:36 12,3 C 11,7 C 11,1 C 87 % 1022,7 hPa 0,0 l/m 0 min 0 min 0 W/m 12,9 km/h (3 Bft) 95,65 %
22.10.2019 05:38 12,3 C 11,7 C 11,1 C 87 % 1022,7 hPa 0,0 l/m 0 min 0 min 0 W/m 6,4 km/h (2 Bft) 93,62 %
22.10.2019 05:40 12,3 C 11,7 C 11,1 C 87 % 1022,7 hPa 0,0 l/m 0 min 0 min 0 W/m 12,9 km/h (3 Bft) 95,74 %
22.10.2019 05:42 12,3 C 11,7 C 11,1 C 87 % 1022,8 hPa 0,0 l/m 0 min 0 min 0 W/m 6,4 km/h (2 Bft) 95,74 %
22.10.2019 05:44 12,3 C 11,7 C 11,1 C 87 % 1022,7 hPa 0,0 l/m 0 min 0 min 0 W/m 6,4 km/h (2 Bft) 97,87 %
22.10.2019 05:46 12,3 C 11,7 C 11,1 C 87 % 1022,7 hPa 0,0 l/m 0 min 0 min 0 W/m 6,4 km/h (2 Bft) 97,87 %
22.10.2019 05:48 12,3 C 11,7 C 11,1 C 88 % 1022,7 hPa 0,0 l/m 0 min 0 min 0 W/m 3,2 km/h (1 Bft) 95,74 %
22.10.2019 05:50 12,3 C 11,7 C 11,1 C 88 % 1022,7 hPa 0,0 l/m 0 min 0 min 0 W/m 6,4 km/h (2 Bft) 97,83 %
22.10.2019 05:52 12,3 C 11,7 C 11,1 C 88 % 1022,6 hPa 0,0 l/m 0 min 0 min 0 W/m 12,9 km/h (3 Bft) 97,87 %
22.10.2019 05:54 12,3 C 11,7 C 11,1 C 88 % 1022,6 hPa 0,0 l/m 0 min 0 min 0 W/m 6,4 km/h (2 Bft) 97,87 %
22.10.2019 05:56 12,3 C 11,7 C 11,1 C 88 % 1022,6 hPa 0,0 l/m 0 min 0 min 0 W/m 9,7 km/h (2 Bft) 97,87 %
22.10.2019 05:58 12,3 C 11,7 C 11,1 C 88 % 1022,6 hPa 0,0 l/m 0 min 0 min 0 W/m 6,4 km/h (2 Bft) 97,87 %
22.10.2019 06:00 12,3 C 11,7 C 11,1 C 88 % 1022,5 hPa 0,0 l/m 0 min 0 min 0 W/m 16,1 km/h (3 Bft) 97,83 %
22.10.2019 06:02 12,3 C 11,7 C 11,1 C 88 % 1022,5 hPa 0,0 l/m 0 min 0 min 0 W/m 6,4 km/h (2 Bft) 95,74 %
22.10.2019 06:04 12,3 C 11,7 C 11,1 C 88 % 1022,6 hPa 0,0 l/m 0 min 0 min 0 W/m 12,9 km/h (3 Bft) 95,74 %
22.10.2019 06:08 12,3 C 11,7 C 11,1 C 88 % 1022,7 hPa 0,0 l/m 0 min 0 min 0 W/m 16,1 km/h (3 Bft) 96,81 %
22.10.2019 06:10 12,3 C 11,7 C 11,1 C 88 % 1022,7 hPa 0,0 l/m 0 min 0 min 0 W/m 12,9 km/h (3 Bft) 97,87 %
22.10.2019 06:12 12,3 C 11,7 C 11,1 C 88 % 1022,6 hPa 0,0 l/m 0 min 0 min 0 W/m 12,9 km/h (3 Bft) 95,65 %
22.10.2019 06:14 12,3 C 11,7 C 11,1 C 88 % 1022,6 hPa 0,0 l/m 0 min 0 min 0 W/m 3,2 km/h (1 Bft) 97,87 %
22.10.2019 06:16 12,3 C 11,7 C 11,1 C 88 % 1022,6 hPa 0,0 l/m 0 min 0 min 0 W/m 6,4 km/h (2 Bft) 95,74 %
22.10.2019 06:18 12,3 C 11,7 C 11,1 C 88 % 1022,5 hPa 0,0 l/m 0 min 0 min 0 W/m 6,4 km/h (2 Bft) 95,74 %
22.10.2019 06:20 12,3 C 11,7 C 11,1 C 88 % 1022,5 hPa 0,0 l/m 0 min 0 min 0 W/m 6,4 km/h (2 Bft) 97,87 %
22.10.2019 06:22 12,3 C 11,7 C 11,1 C 88 % 1022,5 hPa 0,0 l/m 0 min 0 min 0 W/m 3,2 km/h (1 Bft) 97,87 %
22.10.2019 06:24 12,3 C 11,7 C 11,1 C 88 % 1022,5 hPa 0,0 l/m 0 min 0 min 0 W/m 3,2 km/h (1 Bft) 97,83 %
22.10.2019 06:26 12,3 C 11,7 C 11,1 C 88 % 1022,6 hPa 0,0 l/m 0 min 0 min 0 W/m 6,4 km/h (2 Bft) 95,74 %
22.10.2019 06:28 12,3 C 11,7 C 11,1 C 88 % 1022,5 hPa 0,0 l/m 0 min 0 min 0 W/m 3,2 km/h (1 Bft) 97,87 %
22.10.2019 06:30 12,3 C 11,7 C 11,1 C 88 % 1022,5 hPa 0,0 l/m 0 min 0 min 0 W/m 12,9 km/h (3 Bft) 95,74 %
22.10.2019 06:32 12,3 C 11,7 C 11,1 C 88 % 1022,5 hPa 0,0 l/m 0 min 0 min 0 W/m 12,9 km/h (3 Bft) 97,87 %
22.10.2019 06:34 12,3 C 11,7 C 11,1 C 88 % 1022,5 hPa 0,0 l/m 0 min 0 min 0 W/m 6,4 km/h (2 Bft) 95,74 %
22.10.2019 06:36 12,3 C 11,7 C 11,1 C 88 % 1022,5 hPa 0,0 l/m 0 min 0 min 0 W/m 6,4 km/h (2 Bft) 97,83 %
22.10.2019 06:38 12,3 C 11,7 C 11,1 C 88 % 1022,5 hPa 0,0 l/m 0 min 0 min 0 W/m 6,4 km/h (2 Bft) 97,87 %
22.10.2019 06:40 12,3 C 11,7 C 11,1 C 88 % 1022,4 hPa 0,0 l/m 0 min 0 min 0 W/m 12,9 km/h (3 Bft) 97,87 %
22.10.2019 06:42 12,3 C 11,7 C 11,1 C 88 % 1022,3 hPa 0,0 l/m 0 min 0 min 0 W/m 6,4 km/h (2 Bft) 95,74 %
22.10.2019 06:44 12,3 C 11,7 C 11,1 C 88 % 1022,3 hPa 0,0 l/m 0 min 0 min 0 W/m 6,4 km/h (2 Bft) 97,87 %
22.10.2019 06:46 12,3 C 11,7 C 11,1 C 88 % 1022,4 hPa 0,0 l/m 0 min 0 min 0 W/m 6,4 km/h (2 Bft) 97,83 %
22.10.2019 06:48 12,3 C 11,7 C 11,1 C 89 % 1022,3 hPa 0,0 l/m 0 min 0 min 0 W/m 6,4 km/h (2 Bft) 97,87 %
22.10.2019 06:50 12,3 C 11,7 C 11,1 C 89 % 1022,4 hPa 0,0 l/m 0 min 0 min 0 W/m 6,4 km/h (2 Bft) 97,87 %
22.10.2019 06:52 12,3 C 11,7 C 11,1 C 89 % 1022,4 hPa 0,0 l/m 0 min 0 min 0 W/m 3,2 km/h (1 Bft) 97,87 %
22.10.2019 06:54 12,3 C 11,7 C 11,1 C 89 % 1022,4 hPa 0,0 l/m 0 min 0 min 0 W/m 6,4 km/h (2 Bft) 97,87 %
22.10.2019 06:56 12,3 C 11,7 C 11,1 C 89 % 1022,3 hPa 0,0 l/m 0 min 0 min 0 W/m 3,2 km/h (1 Bft) 97,87 %
22.10.2019 06:58 12,3 C 11,7 C 11,1 C 89 % 1022,4 hPa 0,0 l/m 0 min 0 min 0 W/m 6,4 km/h (2 Bft) 97,83 %
22.10.2019 07:00 12,3 C 11,7 C 11,1 C 89 % 1022,4 hPa 0,0 l/m 0 min 0 min 0 W/m 6,4 km/h (2 Bft) 95,74 %
22.10.2019 07:02 12,3 C 11,7 C 11,1 C 89 % 1022,4 hPa 0,0 l/m 0 min 0 min 0 W/m 3,2 km/h (1 Bft) 100,00 %
22.10.2019 07:04 12,3 C 11,7 C 11,1 C 89 % 1022,5 hPa 0,0 l/m 0 min 0 min 0 W/m 12,9 km/h (3 Bft) 100,00 %
22.10.2019 07:06 12,3 C 11,7 C 11,1 C 89 % 1022,5 hPa 0,0 l/m 0 min 0 min 0 W/m 12,9 km/h (3 Bft) 100,00 %
22.10.2019 07:08 12,3 C 11,7 C 11,1 C 89 % 1022,5 hPa 0,0 l/m 0 min 0 min 0 W/m 12,9 km/h (3 Bft) 100,00 %
22.10.2019 07:10 12,3 C 11,7 C 11,1 C 89 % 1022,6 hPa 0,0 l/m 0 min 0 min 0 W/m 6,4 km/h (2 Bft) 100,00 %
22.10.2019 07:12 12,3 C 11,7 C 11,1 C 89 % 1022,5 hPa 0,0 l/m 0 min 0 min 0 W/m 12,9 km/h (3 Bft) 100,00 %
22.10.2019 07:14 12,2 C 11,7 C 11,1 C 89 % 1022,5 hPa 0,0 l/m 0 min 0 min 0 W/m 3,2 km/h (1 Bft) 100,00 %
22.10.2019 07:16 12,2 C 11,7 C 11,1 C 89 % 1022,6 hPa 0,0 l/m 0 min 0 min 0 W/m 12,9 km/h (3 Bft) 97,87 %
22.10.2019 07:18 12,2 C 11,7 C 11,1 C 89 % 1022,7 hPa 0,0 l/m 0 min 0 min 0 W/m 6,4 km/h (2 Bft) 100,00 %
22.10.2019 07:20 12,3 C 11,7 C 11,1 C 89 % 1022,6 hPa 0,0 l/m 0 min 0 min 0 W/m 3,2 km/h (1 Bft) 100,00 %
22.10.2019 07:22 12,2 C 11,7 C 11,1 C 89 % 1022,6 hPa 0,0 l/m 0 min 0 min 0 W/m 3,2 km/h (1 Bft) 97,83 %
22.10.2019 07:24 12,2 C 11,7 C 11,1 C 89 % 1022,7 hPa 0,0 l/m 0 min 0 min 0 W/m 6,4 km/h (2 Bft) 100,00 %
22.10.2019 07:26 12,2 C 11,7 C 11,1 C 89 % 1022,7 hPa 0,0 l/m 0 min 0 min 0 W/m 9,7 km/h (2 Bft) 97,87 %
22.10.2019 07:28 12,2 C 11,7 C 11,1 C 89 % 1022,8 hPa 0,0 l/m 0 min 0 min 0 W/m 6,4 km/h (2 Bft) 97,87 %
22.10.2019 07:30 12,2 C 11,7 C 11,1 C 89 % 1022,7 hPa 0,0 l/m 0 min 0 min 0 W/m 3,2 km/h (1 Bft) 97,87 %
22.10.2019 07:32 12,2 C 11,7 C 11,1 C 89 % 1022,8 hPa 0,0 l/m 0 min 0 min 0 W/m 3,2 km/h (1 Bft) 97,87 %
22.10.2019 07:34 12,2 C 11,7 C 11,1 C 89 % 1022,8 hPa 0,0 l/m 0 min 0 min 0 W/m 3,2 km/h (1 Bft) 100,00 %
22.10.2019 07:36 12,2 C 11,7 C 11,1 C 90 % 1022,8 hPa 0,0 l/m 0 min 0 min 0 W/m 3,2 km/h (1 Bft) 100,00 %
22.10.2019 07:38 12,2 C 11,7 C 11,1 C 90 % 1022,9 hPa 0,0 l/m 0 min 0 min 0 W/m 6,4 km/h (2 Bft) 100,00 %
22.10.2019 07:40 12,2 C 11,7 C 11,1 C 90 % 1023,0 hPa 0,0 l/m 0 min 0 min 0 W/m 3,2 km/h (1 Bft) 97,87 %
22.10.2019 07:42 12,2 C 11,7 C 11,1 C 90 % 1023,1 hPa 0,0 l/m 0 min 0 min 0 W/m 6,4 km/h (2 Bft) 97,87 %
22.10.2019 07:44 12,2 C 11,7 C 11,1 C 90 % 1023,1 hPa 0,0 l/m 0 min 0 min 0 W/m 6,4 km/h (2 Bft) 97,87 %
22.10.2019 07:46 12,2 C 11,7 C 11,1 C 90 % 1023,1 hPa 0,0 l/m 0 min 0 min 0 W/m 3,2 km/h (1 Bft) 100,00 %
22.10.2019 07:48 12,2 C 11,7 C 11,1 C 90 % 1023,1 hPa 0,0 l/m 0 min 0 min 0 W/m 6,4 km/h (2 Bft) 95,74 %
22.10.2019 07:50 12,2 C 11,7 C 11,1 C 90 % 1023,1 hPa 0,0 l/m 0 min 0 min 0 W/m 6,4 km/h (2 Bft) 97,87 %
22.10.2019 07:52 12,2 C 11,7 C 11,1 C 90 % 1023,2 hPa 0,0 l/m 0 min 0 min 0 W/m 6,4 km/h (2 Bft) 95,74 %
22.10.2019 07:54 12,2 C 11,1 C 11,1 C 90 % 1023,2 hPa 0,0 l/m 0 min 0 min 0 W/m 3,2 km/h (1 Bft) 97,87 %
22.10.2019 07:56 12,2 C 11,1 C 11,1 C 90 % 1023,3 hPa 0,0 l/m 0 min 0 min 0 W/m 6,4 km/h (2 Bft) 97,87 %
22.10.2019 07:58 12,2 C 11,1 C 11,1 C 90 % 1023,2 hPa 0,0 l/m 0 min 0 min 0 W/m 6,4 km/h (2 Bft) 95,65 %
22.10.2019 08:00 12,2 C 11,1 C 11,1 C 90 % 1023,2 hPa 0,0 l/m 0 min 0 min 0 W/m 19,3 km/h (3 Bft) 97,87 %
22.10.2019 08:02 12,2 C 11,1 C 11,1 C 90 % 1023,5 hPa 0,0 l/m 0 min 0 min 0 W/m 12,9 km/h (3 Bft) 97,87 %
22.10.2019 08:04 12,2 C 11,1 C 11,1 C 90 % 1023,5 hPa 0,0 l/m 0 min 0 min 0 W/m 6,4 km/h (2 Bft) 97,87 %
22.10.2019 08:06 12,2 C 11,1 C 11,1 C 90 % 1023,4 hPa 0,0 l/m 0 min 0 min 0 W/m 6,4 km/h (2 Bft) 97,87 %
22.10.2019 08:08 12,2 C 11,1 C 11,1 C 90 % 1023,4 hPa 0,0 l/m 0 min 0 min 0 W/m 12,9 km/h (3 Bft) 97,83 %
22.10.2019 08:10 12,2 C 11,1 C 11,1 C 90 % 1023,5 hPa 0,0 l/m 0 min 0 min 0 W/m 12,9 km/h (3 Bft) 97,87 %
22.10.2019 08:12 12,2 C 11,1 C 11,1 C 90 % 1023,5 hPa 0,0 l/m 0 min 0 min 0 W/m 6,4 km/h (2 Bft) 97,87 %
22.10.2019 08:14 12,1 C 11,1 C 11,1 C 90 % 1023,6 hPa 0,0 l/m 0 min 0 min 0 W/m 6,4 km/h (2 Bft) 97,87 %
22.10.2019 08:16 12,1 C 11,1 C 11,1 C 90 % 1023,7 hPa 0,0 l/m 0 min 0 min 0 W/m 6,4 km/h (2 Bft) 97,87 %
22.10.2019 08:18 12,1 C 11,1 C 11,1 C 90 % 1023,7 hPa 0,0 l/m 0 min 0 min 0 W/m 6,4 km/h (2 Bft) 97,87 %
22.10.2019 08:20 12,1 C 11,1 C 11,1 C 90 % 1023,8 hPa 0,0 l/m 0 min 0 min 0 W/m 3,2 km/h (1 Bft) 95,65 %
22.10.2019 08:22 12,1 C 11,1 C 11,1 C 90 % 1023,8 hPa 0,0 l/m 0 min 0 min 0 W/m 6,4 km/h (2 Bft) 97,87 %
22.10.2019 08:24 12,1 C 11,1 C 11,1 C 90 % 1023,7 hPa 0,0 l/m 0 min 0 min 0 W/m 6,4 km/h (2 Bft) 97,87 %
22.10.2019 08:26 12,1 C 11,1 C 11,1 C 90 % 1023,7 hPa 0,0 l/m 0 min 0 min 0 W/m 12,9 km/h (3 Bft) 95,74 %
22.10.2019 08:28 12,1 C 11,1 C 11,1 C 90 % 1023,9 hPa 0,0 l/m 0 min 0 min 0 W/m 6,4 km/h (2 Bft) 97,87 %
22.10.2019 08:30 12,1 C 11,1 C 11,1 C 90 % 1023,9 hPa 0,0 l/m 0 min 0 min 1 W/m 3,2 km/h (1 Bft) 97,87 %
22.10.2019 08:32 12,1 C 11,1 C 11,1 C 90 % 1023,9 hPa 0,0 l/m 0 min 0 min 5 W/m 6,4 km/h (2 Bft) 97,83 %
22.10.2019 08:34 12,1 C 11,1 C 11,1 C 90 % 1024,0 hPa 0,0 l/m 0 min 0 min 5 W/m 12,9 km/h (3 Bft) 97,87 %
22.10.2019 08:36 12,1 C 11,1 C 11,1 C 90 % 1024,1 hPa 0,0 l/m 0 min 0 min 5 W/m 6,4 km/h (2 Bft) 97,87 %
22.10.2019 08:38 12,1 C 11,1 C 11,1 C 90 % 1023,8 hPa 0,0 l/m 0 min 0 min 6 W/m 6,4 km/h (2 Bft) 97,87 %
22.10.2019 08:40 12,1 C 11,1 C 11,1 C 90 % 1023,8 hPa 0,0 l/m 0 min 0 min 9 W/m 3,2 km/h (1 Bft) 100,00 %
22.10.2019 08:42 12,1 C 11,1 C 11,1 C 90 % 1023,8 hPa 0,0 l/m 0 min 0 min 13 W/m 6,4 km/h (2 Bft) 100,00 %
22.10.2019 08:44 12,1 C 11,7 C 11,1 C 91 % 1023,9 hPa 0,0 l/m 0 min 0 min 15 W/m 6,4 km/h (2 Bft) 97,83 %
22.10.2019 08:46 12,1 C 11,7 C 11,1 C 91 % 1023,8 hPa 0,0 l/m 0 min 0 min 14 W/m 6,4 km/h (2 Bft) 97,87 %
22.10.2019 08:48 12,1 C 11,7 C 11,1 C 91 % 1023,8 hPa 0,0 l/m 0 min 0 min 17 W/m 3,2 km/h (1 Bft) 100,00 %
22.10.2019 08:50 12,1 C 11,7 C 11,1 C 91 % 1024,2 hPa 0,0 l/m 0 min 0 min 15 W/m 12,9 km/h (3 Bft) 97,87 %
22.10.2019 08:52 12,1 C 11,7 C 11,1 C 91 % 1024,0 hPa 0,0 l/m 0 min 0 min 12 W/m 12,9 km/h (3 Bft) 100,00 %
22.10.2019 08:54 12,1 C 11,7 C 11,1 C 91 % 1023,9 hPa 0,0 l/m 0 min 0 min 15 W/m 6,4 km/h (2 Bft) 97,87 %
22.10.2019 08:56 12,1 C 11,7 C 11,1 C 91 % 1023,8 hPa 0,0 l/m 0 min 0 min 11 W/m 6,4 km/h (2 Bft) 97,83 %
22.10.2019 08:58 12,1 C 11,7 C 11,1 C 91 % 1023,9 hPa 0,0 l/m 0 min 0 min 14 W/m 6,4 km/h (2 Bft) 95,74 %
22.10.2019 09:00 12,1 C 11,7 C 11,1 C 91 % 1023,9 hPa 0,0 l/m 0 min 0 min 17 W/m 3,2 km/h (1 Bft) 95,74 %
22.10.2019 09:02 12,1 C 11,7 C 11,1 C 91 % 1023,8 hPa 0,0 l/m 0 min 0 min 18 W/m 12,9 km/h (3 Bft) 93,62 %
22.10.2019 09:04 12,1 C 11,7 C 11,1 C 91 % 1023,8 hPa 0,0 l/m 0 min 0 min 19 W/m 9,7 km/h (2 Bft) 95,74 %
22.10.2019 09:06 12,1 C 11,7 C 11,1 C 91 % 1023,9 hPa 0,0 l/m 0 min 0 min 20 W/m 12,9 km/h (3 Bft) 95,65 %
22.10.2019 09:08 12,1 C 11,7 C 11,1 C 91 % 1023,9 hPa 0,0 l/m 0 min 0 min 25 W/m 9,7 km/h (2 Bft) 93,62 %
22.10.2019 09:10 12,1 C 11,7 C 11,1 C 91 % 1024,2 hPa 0,0 l/m 0 min 0 min 22 W/m 12,9 km/h (3 Bft) 95,74 %
22.10.2019 09:12 12,1 C 11,7 C 11,1 C 91 % 1024,3 hPa 0,0 l/m 0 min 0 min 19 W/m 16,1 km/h (3 Bft) 93,62 %
22.10.2019 09:14 12,1 C 11,7 C 11,1 C 91 % 1024,2 hPa 0,0 l/m 0 min 0 min 23 W/m 22,5 km/h (4 Bft) 95,74 %
22.10.2019 09:16 12,1 C 11,7 C 11,1 C 91 % 1024,2 hPa 0,0 l/m 0 min 0 min 30 W/m 12,9 km/h (3 Bft) 95,74 %
22.10.2019 09:18 12,1 C 11,7 C 11,1 C 91 % 1024,3 hPa 0,0 l/m 0 min 0 min 33 W/m 12,9 km/h (3 Bft) 93,48 %
22.10.2019 09:20 12,1 C 11,7 C 11,1 C 91 % 1024,4 hPa 0,0 l/m 0 min 0 min 36 W/m 16,1 km/h (3 Bft) 93,62 %
22.10.2019 09:22 12,1 C 11,7 C 11,1 C 91 % 1024,3 hPa 0,0 l/m 0 min 0 min 35 W/m 16,1 km/h (3 Bft) 95,74 %
22.10.2019 09:24 12,1 C 11,7 C 11,1 C 91 % 1024,4 hPa 0,0 l/m 0 min 0 min 32 W/m 12,9 km/h (3 Bft) 95,74 %
22.10.2019 09:26 12,1 C 11,7 C 11,1 C 91 % 1024,4 hPa 0,0 l/m 0 min 0 min 27 W/m 16,1 km/h (3 Bft) 95,74 %
22.10.2019 09:28 12,1 C 11,7 C 11,1 C 91 % 1024,5 hPa 0,0 l/m 0 min 0 min 21 W/m 12,9 km/h (3 Bft) 93,62 %
22.10.2019 09:30 12,2 C 11,7 C 11,1 C 91 % 1024,6 hPa 0,0 l/m 0 min 0 min 18 W/m 16,1 km/h (3 Bft) 93,48 %
22.10.2019 09:32 12,2 C 11,7 C 11,1 C 91 % 1024,4 hPa 0,0 l/m 0 min 0 min 16 W/m 3,2 km/h (1 Bft) 95,74 %
22.10.2019 09:34 12,2 C 11,7 C 11,1 C 91 % 1024,3 hPa 0,0 l/m 0 min 0 min 35 W/m 6,4 km/h (2 Bft) 95,74 %
22.10.2019 09:36 12,2 C 11,7 C 11,1 C 91 % 1024,3 hPa 0,0 l/m 0 min 0 min 41 W/m 3,2 km/h (1 Bft) 93,62 %
22.10.2019 09:38 12,2 C 11,7 C 11,1 C 91 % 1024,3 hPa 0,0 l/m 0 min 0 min 41 W/m 12,9 km/h (3 Bft) 93,62 %
22.10.2019 09:40 12,2 C 11,7 C 11,1 C 91 % 1024,4 hPa 0,0 l/m 0 min 0 min 47 W/m 16,1 km/h (3 Bft) 95,74 %
22.10.2019 09:42 12,2 C 11,7 C 11,1 C 91 % 1024,4 hPa 0,0 l/m 0 min 0 min 42 W/m 16,1 km/h (3 Bft) 97,83 %
22.10.2019 09:44 12,2 C 11,7 C 11,1 C 91 % 1024,5 hPa 0,0 l/m 0 min 0 min 48 W/m 12,9 km/h (3 Bft) 97,87 %
22.10.2019 09:46 12,2 C 11,7 C 11,7 C 91 % 1024,5 hPa 0,0 l/m 0 min 0 min 52 W/m 12,9 km/h (3 Bft) 95,74 %
22.10.2019 09:48 12,2 C 12,2 C 11,7 C 91 % 1024,5 hPa 0,0 l/m 0 min 0 min 48 W/m 12,9 km/h (3 Bft) 100,00 %
22.10.2019 09:50 12,2 C 12,2 C 11,7 C 91 % 1024,4 hPa 0,0 l/m 0 min 0 min 53 W/m 12,9 km/h (3 Bft) 100,00 %
22.10.2019 09:52 12,2 C 12,2 C 11,7 C 91 % 1024,3 hPa 0,0 l/m 0 min 0 min 62 W/m 6,4 km/h (2 Bft) 100,00 %
22.10.2019 09:54 12,2 C 12,2 C 11,7 C 91 % 1024,3 hPa 0,0 l/m 0 min 0 min 70 W/m 6,4 km/h (2 Bft) 97,83 %
22.10.2019 09:56 12,3 C 12,2 C 11,7 C 91 % 1024,4 hPa 0,0 l/m 0 min 0 min 69 W/m 6,4 km/h (2 Bft) 100,00 %
22.10.2019 09:58 12,3 C 12,2 C 11,7 C 91 % 1024,3 hPa 0,0 l/m 0 min 0 min 51 W/m 12,9 km/h (3 Bft) 100,00 %
22.10.2019 10:00 12,3 C 12,2 C 11,7 C 91 % 1024,4 hPa 0,0 l/m 0 min 0 min 25 W/m 12,9 km/h (3 Bft) 100,00 %
22.10.2019 10:02 12,3 C 12,2 C 11,7 C 91 % 1024,4 hPa 0,0 l/m 0 min 0 min 32 W/m 6,4 km/h (2 Bft) 100,00 %
22.10.2019 10:04 12,3 C 12,2 C 11,7 C 91 % 1024,4 hPa 0,0 l/m 0 min 0 min 41 W/m 12,9 km/h (3 Bft) 100,00 %
22.10.2019 10:06 12,3 C 12,2 C 11,7 C 91 % 1024,5 hPa 0,0 l/m 0 min 0 min 36 W/m 3,2 km/h (1 Bft) 97,83 %
22.10.2019 10:08 12,3 C 12,2 C 11,7 C 91 % 1024,6 hPa 0,0 l/m 0 min 0 min 38 W/m 16,1 km/h (3 Bft) 100,00 %
22.10.2019 10:10 12,3 C 11,7 C 11,7 C 91 % 1024,5 hPa 0,0 l/m 0 min 0 min 33 W/m 16,1 km/h (3 Bft) 100,00 %
22.10.2019 10:12 12,3 C 11,7 C 11,7 C 91 % 1024,5 hPa 0,0 l/m 0 min 0 min 29 W/m 12,9 km/h (3 Bft) 97,87 %
22.10.2019 10:14 12,4 C 12,2 C 11,7 C 91 % 1024,5 hPa 0,0 l/m 0 min 0 min 44 W/m 12,9 km/h (3 Bft) 100,00 %
22.10.2019 10:16 12,4 C 12,2 C 11,7 C 91 % 1024,6 hPa 0,0 l/m 0 min 0 min 39 W/m 12,9 km/h (3 Bft) 100,00 %
22.10.2019 10:18 12,4 C 12,2 C 11,7 C 91 % 1024,6 hPa 0,0 l/m 0 min 0 min 44 W/m 12,9 km/h (3 Bft) 100,00 %
22.10.2019 10:20 12,4 C 12,2 C 11,7 C 91 % 1024,7 hPa 0,0 l/m 0 min 0 min 58 W/m 16,1 km/h (3 Bft) 100,00 %
22.10.2019 10:22 12,4 C 12,2 C 11,7 C 91 % 1024,7 hPa 0,0 l/m 0 min 0 min 77 W/m 9,7 km/h (2 Bft) 100,00 %
22.10.2019 10:24 12,4 C 12,2 C 11,7 C 90 % 1024,7 hPa 0,0 l/m 0 min 0 min 71 W/m 19,3 km/h (3 Bft) 100,00 %
22.10.2019 10:26 12,4 C 12,2 C 11,7 C 90 % 1024,7 hPa 0,0 l/m 0 min 0 min 62 W/m 16,1 km/h (3 Bft) 97,87 %
22.10.2019 10:28 12,4 C 12,2 C 11,7 C 90 % 1024,7 hPa 0,0 l/m 0 min 0 min 67 W/m 16,1 km/h (3 Bft) 100,00 %
22.10.2019 10:30 12,4 C 12,2 C 11,7 C 90 % 1024,7 hPa 0,0 l/m 0 min 0 min 83 W/m 6,4 km/h (2 Bft) 100,00 %
22.10.2019 10:32 12,5 C 12,2 C 11,7 C 90 % 1024,7 hPa 0,0 l/m 0 min 0 min 82 W/m 12,9 km/h (3 Bft) 97,87 %
22.10.2019 10:34 12,5 C 12,2 C 11,7 C 90 % 1024,7 hPa 0,0 l/m 0 min 0 min 70 W/m 16,1 km/h (3 Bft) 97,87 %
22.10.2019 10:36 12,5 C 12,2 C 11,7 C 90 % 1024,9 hPa 0,0 l/m 0 min 0 min 67 W/m 16,1 km/h (3 Bft) 97,87 %
22.10.2019 10:38 12,6 C 12,8 C 11,7 C 90 % 1025,0 hPa 0,0 l/m 0 min 0 min 99 W/m 16,1 km/h (3 Bft) 97,87 %
22.10.2019 10:40 12,6 C 12,8 C 12,2 C 90 % 1024,9 hPa 0,0 l/m 0 min 0 min 115 W/m 16,1 km/h (3 Bft) 100,00 %
22.10.2019 10:42 12,6 C 12,8 C 12,2 C 90 % 1024,9 hPa 0,0 l/m 0 min 0 min 118 W/m 19,3 km/h (3 Bft) 97,87 %
22.10.2019 10:44 12,6 C 12,8 C 12,2 C 90 % 1024,9 hPa 0,0 l/m 0 min 0 min 117 W/m 12,9 km/h (3 Bft) 97,87 %
22.10.2019 10:46 12,6 C 12,8 C 12,2 C 91 % 1024,9 hPa 0,0 l/m 0 min 0 min 123 W/m 12,9 km/h (3 Bft) 97,87 %
22.10.2019 10:48 12,7 C 12,8 C 12,2 C 91 % 1024,9 hPa 0,0 l/m 0 min 0 min 139 W/m 22,5 km/h (4 Bft) 100,00 %
22.10.2019 10:50 12,7 C 13,3 C 12,2 C 91 % 1025,0 hPa 0,0 l/m 0 min 0 min 120 W/m 6,4 km/h (2 Bft) 100,00 %
22.10.2019 10:52 12,7 C 13,3 C 12,2 C 91 % 1025,0 hPa 0,0 l/m 0 min 0 min 134 W/m 22,5 km/h (4 Bft) 95,74 %
22.10.2019 10:54 12,8 C 12,8 C 12,2 C 91 % 1025,1 hPa 0,0 l/m 0 min 0 min 125 W/m 19,3 km/h (3 Bft) 95,74 %
22.10.2019 10:56 12,8 C 12,8 C 12,2 C 91 % 1025,1 hPa 0,0 l/m 0 min 0 min 125 W/m 19,3 km/h (3 Bft) 95,74 %
22.10.2019 10:58 12,8 C 12,8 C 12,2 C 90 % 1025,0 hPa 0,0 l/m 0 min 0 min 133 W/m 22,5 km/h (4 Bft) 97,87 %
22.10.2019 11:00 12,9 C 13,3 C 12,2 C 90 % 1025,0 hPa 0,0 l/m 0 min 0 min 138 W/m 12,9 km/h (3 Bft) 97,87 %
22.10.2019 11:02 12,9 C 13,3 C 12,8 C 90 % 1025,1 hPa 0,0 l/m 0 min 0 min 133 W/m 12,9 km/h (3 Bft) 97,87 %
22.10.2019 11:04 12,9 C 13,3 C 12,8 C 90 % 1025,0 hPa 0,0 l/m 0 min 0 min 120 W/m 12,9 km/h (3 Bft) 97,83 %
22.10.2019 11:06 12,9 C 13,3 C 12,8 C 90 % 1025,0 hPa 0,0 l/m 0 min 0 min 124 W/m 16,1 km/h (3 Bft) 95,74 %
22.10.2019 11:08 13,0 C 13,3 C 12,8 C 90 % 1025,0 hPa 0,0 l/m 0 min 0 min 115 W/m 12,9 km/h (3 Bft) 97,87 %
22.10.2019 11:10 13,0 C 13,3 C 12,8 C 90 % 1025,0 hPa 0,0 l/m 0 min 0 min 116 W/m 6,4 km/h (2 Bft) 100,00 %
22.10.2019 11:12 13,1 C 12,8 C 12,2 C 90 % 1025,1 hPa 0,0 l/m 0 min 0 min 124 W/m 6,4 km/h (2 Bft) 95,74 %
22.10.2019 11:14 13,1 C 12,8 C 12,2 C 90 % 1025,1 hPa 0,0 l/m 0 min 0 min 110 W/m 12,9 km/h (3 Bft) 97,87 %
22.10.2019 11:16 13,1 C 12,8 C 12,2 C 90 % 1025,2 hPa 0,0 l/m 0 min 0 min 103 W/m 19,3 km/h (3 Bft) 97,83 %
22.10.2019 11:18 13,1 C 12,8 C 12,2 C 90 % 1025,2 hPa 0,0 l/m 0 min 0 min 107 W/m 9,7 km/h (2 Bft) 97,87 %
22.10.2019 11:20 13,1 C 12,8 C 12,2 C 90 % 1025,1 hPa 0,0 l/m 0 min 0 min 110 W/m 16,1 km/h (3 Bft) 97,87 %
22.10.2019 11:22 13,2 C 12,8 C 12,2 C 90 % 1025,2 hPa 0,0 l/m 0 min 0 min 123 W/m 19,3 km/h (3 Bft) 97,87 %
22.10.2019 11:24 13,2 C 13,3 C 12,2 C 90 % 1025,1 hPa 0,0 l/m 0 min 0 min 143 W/m 16,1 km/h (3 Bft) 97,87 %
22.10.2019 11:26 13,2 C 13,3 C 12,8 C 90 % 1025,1 hPa 0,0 l/m 0 min 0 min 160 W/m 19,3 km/h (3 Bft) 97,87 %
22.10.2019 11:28 13,2 C 13,9 C 12,8 C 90 % 1025,1 hPa 0,0 l/m 0 min 0 min 186 W/m 16,1 km/h (3 Bft) 95,65 %
22.10.2019 11:30 13,2 C 13,9 C 12,8 C 90 % 1025,1 hPa 0,0 l/m 0 min 0 min 166 W/m 9,7 km/h (2 Bft) 95,74 %
22.10.2019 11:32 13,2 C 13,9 C 12,8 C 90 % 1025,1 hPa 0,0 l/m 0 min 0 min 169 W/m 19,3 km/h (3 Bft) 93,62 %
22.10.2019 11:34 13,2 C 13,9 C 12,8 C 90 % 1025,1 hPa 0,0 l/m 0 min 0 min 149 W/m 12,9 km/h (3 Bft) 95,74 %
22.10.2019 11:36 13,2 C 13,9 C 12,8 C 90 % 1025,1 hPa 0,0 l/m 0 min 0 min 134 W/m 12,9 km/h (3 Bft) 95,74 %
22.10.2019 11:38 13,3 C 13,9 C 12,8 C 90 % 1025,1 hPa 0,0 l/m 0 min 0 min 144 W/m 9,7 km/h (2 Bft) 95,74 %
22.10.2019 11:40 13,3 C 13,9 C 12,8 C 90 % 1025,1 hPa 0,0 l/m 0 min 0 min 154 W/m 6,4 km/h (2 Bft) 93,48 %
22.10.2019 11:42 13,3 C 13,9 C 12,8 C 90 % 1025,2 hPa 0,0 l/m 0 min 0 min 120 W/m 9,7 km/h (2 Bft) 93,62 %
22.10.2019 11:44 13,3 C 13,9 C 12,8 C 90 % 1025,2 hPa 0,0 l/m 0 min 0 min 142 W/m 12,9 km/h (3 Bft) 93,62 %
22.10.2019 11:46 13,4 C 13,9 C 12,8 C 90 % 1025,3 hPa 0,0 l/m 0 min 0 min 170 W/m 12,9 km/h (3 Bft) 95,74 %
22.10.2019 11:48 13,4 C 13,9 C 12,8 C 90 % 1025,3 hPa 0,0 l/m 0 min 0 min 156 W/m 3,2 km/h (1 Bft) 95,74 %
22.10.2019 11:50 13,4 C 13,9 C 12,8 C 90 % 1025,3 hPa 0,0 l/m 0 min 0 min 151 W/m 6,4 km/h (2 Bft) 95,74 %
22.10.2019 11:52 13,4 C 14,4 C 13,3 C 90 % 1025,3 hPa 0,0 l/m 0 min 0 min 147 W/m 3,2 km/h (1 Bft) 97,83 %
22.10.2019 11:54 13,5 C 13,9 C 13,3 C 90 % 1025,2 hPa 0,0 l/m 0 min 0 min 126 W/m 3,2 km/h (1 Bft) 100,00 %
22.10.2019 11:56 13,5 C 13,9 C 12,8 C 90 % 1025,2 hPa 0,0 l/m 0 min 0 min 137 W/m 12,9 km/h (3 Bft) 97,87 %
22.10.2019 11:58 13,5 C 13,9 C 12,8 C 90 % 1025,3 hPa 0,0 l/m 0 min 0 min 134 W/m 6,4 km/h (2 Bft) 91,49 %
22.10.2019 12:00 13,6 C 13,9 C 12,8 C 90 % 1025,2 hPa 0,0 l/m 0 min 0 min 144 W/m 6,4 km/h (2 Bft) 95,74 %
22.10.2019 12:02 13,5 C 13,3 C 12,8 C 90 % 1025,2 hPa 0,0 l/m 0 min 0 min 115 W/m 22,5 km/h (4 Bft) 95,74 %
22.10.2019 12:04 13,5 C 13,3 C 12,8 C 90 % 1025,3 hPa 0,0 l/m 0 min 0 min 110 W/m 12,9 km/h (3 Bft) 95,65 %
22.10.2019 12:08 13,5 C 13,3 C 12,8 C 90 % 1025,2 hPa 0,0 l/m 0 min 0 min 114 W/m 12,9 km/h (3 Bft) 94,68 %
22.10.2019 12:10 13,5 C 13,3 C 12,8 C 90 % 1025,3 hPa 0,0 l/m 0 min 0 min 83 W/m 12,9 km/h (3 Bft) 93,62 %
22.10.2019 12:12 13,6 C 13,3 C 12,8 C 90 % 1025,3 hPa 0,0 l/m 0 min 0 min 76 W/m 6,4 km/h (2 Bft) 97,87 %
22.10.2019 12:14 13,6 C 13,3 C 12,8 C 90 % 1025,3 hPa 0,0 l/m 0 min 0 min 73 W/m 3,2 km/h (1 Bft) 97,87 %
22.10.2019 12:16 13,6 C 13,3 C 12,8 C 90 % 1025,3 hPa 0,0 l/m 0 min 0 min 92 W/m 6,4 km/h (2 Bft) 95,65 %
22.10.2019 12:18 13,6 C 13,3 C 12,8 C 90 % 1025,4 hPa 0,0 l/m 0 min 0 min 89 W/m 19,3 km/h (3 Bft) 95,74 %
22.10.2019 12:20 13,6 C 13,3 C 12,8 C 90 % 1025,4 hPa 0,0 l/m 0 min 0 min 116 W/m 16,1 km/h (3 Bft) 97,87 %
22.10.2019 12:22 13,6 C 13,3 C 12,8 C 90 % 1025,5 hPa 0,0 l/m 0 min 0 min 85 W/m 6,4 km/h (2 Bft) 95,74 %
22.10.2019 12:24 13,6 C 13,3 C 12,8 C 90 % 1025,5 hPa 0,0 l/m 0 min 0 min 103 W/m 3,2 km/h (1 Bft) 95,74 %
22.10.2019 12:26 13,6 C 13,3 C 12,8 C 90 % 1025,6 hPa 0,0 l/m 0 min 0 min 77 W/m 12,9 km/h (3 Bft) 97,83 %
22.10.2019 12:28 13,6 C 13,3 C 12,8 C 90 % 1025,5 hPa 0,0 l/m 0 min 0 min 49 W/m 12,9 km/h (3 Bft) 95,74 %
22.10.2019 12:30 13,6 C 13,3 C 12,8 C 90 % 1025,5 hPa 0,0 l/m 0 min 0 min 79 W/m 12,9 km/h (3 Bft) 97,87 %
22.10.2019 12:32 13,6 C 13,3 C 12,8 C 90 % 1025,5 hPa 0,0 l/m 0 min 0 min 105 W/m 19,3 km/h (3 Bft) 95,74 %
22.10.2019 12:34 13,6 C 13,3 C 12,8 C 90 % 1025,5 hPa 0,0 l/m 0 min 0 min 112 W/m 9,7 km/h (2 Bft) 97,87 %
22.10.2019 12:36 13,6 C 13,3 C 12,8 C 90 % 1025,6 hPa 0,0 l/m 0 min 0 min 101 W/m 12,9 km/h (3 Bft) 95,74 %
22.10.2019 12:38 13,6 C 13,3 C 12,8 C 90 % 1025,6 hPa 0,0 l/m 0 min 0 min 98 W/m 19,3 km/h (3 Bft) 97,83 %
22.10.2019 12:40 13,6 C 13,3 C 12,8 C 89 % 1025,6 hPa 0,0 l/m 0 min 0 min 96 W/m 22,5 km/h (4 Bft) 97,87 %
22.10.2019 12:42 13,6 C 13,3 C 12,8 C 89 % 1025,7 hPa 0,0 l/m 0 min 0 min 116 W/m 19,3 km/h (3 Bft) 100,00 %
22.10.2019 12:44 13,6 C 13,3 C 12,8 C 89 % 1025,7 hPa 0,0 l/m 0 min 0 min 100 W/m 6,4 km/h (2 Bft) 97,87 %
22.10.2019 12:46 13,7 C 13,3 C 12,8 C 89 % 1025,7 hPa 0,0 l/m 0 min 0 min 93 W/m 12,9 km/h (3 Bft) 97,87 %
22.10.2019 12:48 13,7 C 13,3 C 12,8 C 89 % 1025,7 hPa 0,0 l/m 0 min 0 min 86 W/m 12,9 km/h (3 Bft) 100,00 %
22.10.2019 12:50 13,7 C 13,3 C 12,8 C 89 % 1025,6 hPa 0,0 l/m 0 min 0 min 94 W/m 12,9 km/h (3 Bft) 100,00 %
22.10.2019 12:52 13,7 C 13,3 C 12,8 C 89 % 1025,5 hPa 0,0 l/m 0 min 0 min 92 W/m 12,9 km/h (3 Bft) 97,87 %
22.10.2019 12:54 13,7 C 13,3 C 12,8 C 89 % 1025,4 hPa 0,0 l/m 0 min 0 min 99 W/m 12,9 km/h (3 Bft) 100,00 %
22.10.2019 12:56 13,7 C 13,3 C 12,8 C 89 % 1025,4 hPa 0,0 l/m 0 min 0 min 103 W/m 6,4 km/h (2 Bft) 54,55 %
22.10.2019 12:58 13,7 C 13,9 C 12,8 C 89 % 1025,4 hPa 0,0 l/m 0 min 0 min 145 W/m 6,4 km/h (2 Bft) 100,00 %
22.10.2019 13:00 13,7 C 13,9 C 13,3 C 89 % 1025,4 hPa 0,0 l/m 0 min 0 min 175 W/m 12,9 km/h (3 Bft) 100,00 %
22.10.2019 13:02 13,7 C 13,9 C 13,3 C 89 % 1025,5 hPa 0,0 l/m 0 min 0 min 136 W/m 19,3 km/h (3 Bft) 97,83 %
22.10.2019 13:04 13,7 C 13,9 C 13,3 C 89 % 1025,4 hPa 0,0 l/m 0 min 0 min 136 W/m 19,3 km/h (3 Bft) 100,00 %
22.10.2019 13:06 13,7 C 13,9 C 13,3 C 89 % 1025,4 hPa 0,0 l/m 0 min 0 min 123 W/m 6,4 km/h (2 Bft) 100,00 %
22.10.2019 13:08 13,7 C 13,9 C 13,3 C 89 % 1025,3 hPa 0,0 l/m 0 min 0 min 129 W/m 12,9 km/h (3 Bft) 100,00 %
22.10.2019 13:10 13,8 C 14,4 C 13,3 C 89 % 1025,3 hPa 0,0 l/m 0 min 0 min 169 W/m 6,4 km/h (2 Bft) 100,00 %
22.10.2019 13:12 13,8 C 14,4 C 13,3 C 89 % 1025,3 hPa 0,0 l/m 0 min 0 min 118 W/m 0,0 km/h (0 Bft) 100,00 %
22.10.2019 13:14 13,8 C 14,4 C 13,3 C 89 % 1025,2 hPa 0,0 l/m 0 min 0 min 134 W/m 3,2 km/h (1 Bft) 97,83 %
22.10.2019 13:16 13,8 C 14,4 C 13,3 C 89 % 1025,2 hPa 0,0 l/m 0 min 0 min 123 W/m 3,2 km/h (1 Bft) 100,00 %
22.10.2019 13:18 13,8 C 14,4 C 13,3 C 89 % 1025,3 hPa 0,0 l/m 0 min 0 min 134 W/m 6,4 km/h (2 Bft) 100,00 %
22.10.2019 13:20 13,8 C 14,4 C 13,3 C 89 % 1025,3 hPa 0,0 l/m 0 min 0 min 138 W/m 12,9 km/h (3 Bft) 100,00 %
22.10.2019 13:22 13,9 C 14,4 C 13,9 C 89 % 1025,2 hPa 0,0 l/m 0 min 0 min 211 W/m 6,4 km/h (2 Bft) 100,00 %
22.10.2019 13:24 13,9 C 15,0 C 13,9 C 89 % 1025,2 hPa 0,0 l/m 0 min 0 min 187 W/m 3,2 km/h (1 Bft) 100,00 %
22.10.2019 13:26 13,9 C 14,4 C 13,9 C 89 % 1025,3 hPa 0,0 l/m 0 min 0 min 171 W/m 12,9 km/h (3 Bft) 100,00 %
22.10.2019 13:28 14,0 C 15,0 C 13,9 C 89 % 1025,2 hPa 0,0 l/m 0 min 0 min 143 W/m 0,0 km/h (0 Bft) 100,00 %
22.10.2019 13:30 14,1 C 14,4 C 13,9 C 89 % 1025,3 hPa 0,0 l/m 0 min 0 min 82 W/m 6,4 km/h (2 Bft) 100,00 %
22.10.2019 13:32 14,1 C 13,9 C 13,3 C 89 % 1025,4 hPa 0,0 l/m 0 min 0 min 57 W/m 12,9 km/h (3 Bft) 100,00 %
22.10.2019 13:34 14,1 C 13,9 C 13,3 C 89 % 1025,3 hPa 0,0 l/m 0 min 0 min 61 W/m 3,2 km/h (1 Bft) 100,00 %
22.10.2019 13:36 14,1 C 13,9 C 13,3 C 89 % 1025,4 hPa 0,0 l/m 0 min 0 min 71 W/m 6,4 km/h (2 Bft) 100,00 %
22.10.2019 13:38 14,1 C 13,9 C 13,3 C 89 % 1025,3 hPa 0,0 l/m 0 min 0 min 79 W/m 3,2 km/h (1 Bft) 100,00 %
22.10.2019 13:40 14,1 C 13,9 C 13,3 C 89 % 1025,2 hPa 0,0 l/m 0 min 0 min 76 W/m 3,2 km/h (1 Bft) 100,00 %
22.10.2019 13:42 14,1 C 13,9 C 13,3 C 89 % 1025,2 hPa 0,0 l/m 0 min 0 min 73 W/m 3,2 km/h (1 Bft) 100,00 %
22.10.2019 13:44 14,1 C 13,9 C 13,3 C 88 % 1025,2 hPa 0,0 l/m 0 min 0 min 80 W/m 3,2 km/h (1 Bft) 100,00 %
22.10.2019 13:46 14,1 C 13,9 C 13,3 C 88 % 1025,1 hPa 0,0 l/m 0 min 0 min 89 W/m 6,4 km/h (2 Bft) 100,00 %
22.10.2019 13:48 14,1 C 13,9 C 13,3 C 88 % 1025,1 hPa 0,0 l/m 0 min 0 min 89 W/m 3,2 km/h (1 Bft) 100,00 %
22.10.2019 13:50 14,1 C 13,9 C 13,3 C 88 % 1025,1 hPa 0,0 l/m 0 min 0 min 89 W/m 9,7 km/h (2 Bft) 100,00 %
22.10.2019 13:52 14,1 C 13,9 C 13,3 C 88 % 1025,0 hPa 0,0 l/m 0 min 0 min 98 W/m 6,4 km/h (2 Bft) 100,00 %
22.10.2019 13:54 14,1 C 13,9 C 13,3 C 88 % 1025,0 hPa 0,0 l/m 0 min 0 min 109 W/m 3,2 km/h (1 Bft) 97,87 %
22.10.2019 13:56 14,1 C 13,9 C 13,3 C 88 % 1025,0 hPa 0,0 l/m 0 min 0 min 138 W/m 6,4 km/h (2 Bft) 97,87 %
22.10.2019 13:58 14,1 C 14,4 C 13,3 C 88 % 1025,1 hPa 0,0 l/m 0 min 0 min 175 W/m 3,2 km/h (1 Bft) 97,87 %
22.10.2019 14:00 14,2 C 14,4 C 13,9 C 88 % 1025,0 hPa 0,0 l/m 0 min 0 min 184 W/m 3,2 km/h (1 Bft) 97,83 %
22.10.2019 14:02 14,1 C 14,4 C 13,9 C 88 % 1025,0 hPa 0,0 l/m 0 min 0 min 183 W/m 3,2 km/h (1 Bft) 97,87 %
22.10.2019 14:04 14,2 C 14,4 C 13,9 C 88 % 1025,0 hPa 0,0 l/m 0 min 0 min 177 W/m 6,4 km/h (2 Bft) 97,87 %
22.10.2019 14:06 14,2 C 14,4 C 13,9 C 88 % 1024,8 hPa 0,0 l/m 0 min 0 min 156 W/m 6,4 km/h (2 Bft) 97,87 %
22.10.2019 14:08 14,2 C 14,4 C 13,9 C 88 % 1024,8 hPa 0,0 l/m 0 min 0 min 139 W/m 3,2 km/h (1 Bft) 95,74 %
22.10.2019 14:10 14,3 C 14,4 C 13,9 C 88 % 1024,7 hPa 0,0 l/m 0 min 0 min 136 W/m 6,4 km/h (2 Bft) 95,74 %
22.10.2019 14:12 14,3 C 14,4 C 13,9 C 88 % 1024,7 hPa 0,0 l/m 0 min 0 min 162 W/m 3,2 km/h (1 Bft) 97,83 %
22.10.2019 14:14 14,3 C 15,0 C 13,9 C 88 % 1024,7 hPa 0,0 l/m 0 min 0 min 187 W/m 3,2 km/h (1 Bft) 97,87 %
22.10.2019 14:16 14,3 C 16,1 C 13,9 C 88 % 1024,8 hPa 0,0 l/m 2 min 0 min 247 W/m 0,0 km/h (0 Bft) 95,74 %
22.10.2019 14:18 14,3 C 17,2 C 14,4 C 88 % 1024,8 hPa 0,0 l/m 2 min 0 min 390 W/m 0,0 km/h (0 Bft) 93,62 %
22.10.2019 14:20 14,3 C 18,3 C 15,0 C 88 % 1024,7 hPa 0,0 l/m 2 min 0 min 413 W/m 6,4 km/h (2 Bft) 95,74 %
22.10.2019 14:22 14,4 C 20,0 C 15,0 C 88 % 1024,7 hPa 0,0 l/m 2 min 0 min 418 W/m 6,4 km/h (2 Bft) 97,87 %
22.10.2019 14:24 14,5 C 20,6 C 15,0 C 88 % 1024,7 hPa 0,0 l/m 2 min 0 min 567 W/m 16,1 km/h (3 Bft) 95,65 %
22.10.2019 14:26 14,6 C 20,0 C 15,0 C 88 % 1024,8 hPa 0,0 l/m 2 min 0 min 606 W/m 16,1 km/h (3 Bft) 97,87 %
22.10.2019 14:28 14,8 C 21,1 C 15,0 C 87 % 1024,8 hPa 0,0 l/m 2 min 0 min 559 W/m 6,4 km/h (2 Bft) 95,74 %
22.10.2019 14:30 14,9 C 21,7 C 15,0 C 87 % 1024,7 hPa 0,0 l/m 2 min 0 min 559 W/m 6,4 km/h (2 Bft) 95,74 %
22.10.2019 14:32 15,0 C 21,7 C 15,0 C 87 % 1024,6 hPa 0,0 l/m 2 min 0 min 514 W/m 6,4 km/h (2 Bft) 95,74 %
22.10.2019 14:34 15,1 C 20,6 C 15,0 C 87 % 1024,6 hPa 0,0 l/m 2 min 0 min 565 W/m 19,3 km/h (3 Bft) 95,65 %
22.10.2019 14:36 15,2 C 18,9 C 14,4 C 85 % 1024,7 hPa 0,0 l/m 2 min 0 min 527 W/m 22,5 km/h (4 Bft) 93,62 %
22.10.2019 14:38 15,2 C 17,8 C 14,4 C 85 % 1024,6 hPa 0,0 l/m 2 min 0 min 388 W/m 12,9 km/h (3 Bft) 97,87 %
22.10.2019 14:40 15,3 C 18,9 C 14,4 C 85 % 1024,4 hPa 0,0 l/m 2 min 0 min 260 W/m 9,7 km/h (2 Bft) 97,87 %
22.10.2019 14:42 15,3 C 19,4 C 15,0 C 84 % 1024,4 hPa 0,0 l/m 2 min 0 min 408 W/m 12,9 km/h (3 Bft) 97,87 %
22.10.2019 14:44 15,4 C 19,4 C 15,0 C 84 % 1024,5 hPa 0,0 l/m 2 min 0 min 353 W/m 6,4 km/h (2 Bft) 95,74 %
22.10.2019 14:46 15,5 C 18,9 C 15,0 C 84 % 1024,5 hPa 0,0 l/m 2 min 0 min 348 W/m 12,9 km/h (3 Bft) 97,83 %
22.10.2019 14:48 15,6 C 18,9 C 14,4 C 84 % 1024,4 hPa 0,0 l/m 2 min 0 min 317 W/m 3,2 km/h (1 Bft) 97,87 %
22.10.2019 14:50 15,6 C 18,3 C 14,4 C 83 % 1024,4 hPa 0,0 l/m 2 min 0 min 317 W/m 16,1 km/h (3 Bft) 95,74 %
22.10.2019 14:52 15,6 C 18,3 C 14,4 C 83 % 1024,3 hPa 0,0 l/m 2 min 0 min 318 W/m 12,9 km/h (3 Bft) 93,62 %
22.10.2019 14:54 15,6 C 18,9 C 14,4 C 83 % 1024,3 hPa 0,0 l/m 2 min 0 min 345 W/m 3,2 km/h (1 Bft) 95,74 %
22.10.2019 14:56 15,7 C 20,0 C 15,0 C 83 % 1024,4 hPa 0,0 l/m 2 min 0 min 467 W/m 6,4 km/h (2 Bft) 95,74 %
22.10.2019 14:58 15,8 C 20,0 C 15,0 C 83 % 1024,4 hPa 0,0 l/m 2 min 0 min 486 W/m 9,7 km/h (2 Bft) 95,74 %
22.10.2019 15:00 15,8 C 19,4 C 15,0 C 83 % 1024,4 hPa 0,0 l/m 2 min 0 min 401 W/m 3,2 km/h (1 Bft) 93,48 %
22.10.2019 15:02 15,9 C 21,1 C 15,6 C 83 % 1024,4 hPa 0,0 l/m 2 min 0 min 472 W/m 6,4 km/h (2 Bft) 91,49 %
22.10.2019 15:04 16,0 C 21,1 C 15,6 C 83 % 1024,4 hPa 0,0 l/m 2 min 0 min 555 W/m 6,4 km/h (2 Bft) 95,74 %
22.10.2019 15:06 16,1 C 19,4 C 15,6 C 83 % 1024,4 hPa 0,0 l/m 2 min 0 min 301 W/m 3,2 km/h (1 Bft) 95,74 %
22.10.2019 15:08 16,1 C 18,3 C 15,6 C 83 % 1024,2 hPa 0,0 l/m 2 min 0 min 217 W/m 6,4 km/h (2 Bft) 95,74 %
22.10.2019 15:10 16,1 C 17,8 C 15,0 C 82 % 1024,2 hPa 0,0 l/m 2 min 0 min 223 W/m 12,9 km/h (3 Bft) 95,65 %
22.10.2019 15:12 16,1 C 17,8 C 15,0 C 82 % 1024,3 hPa 0,0 l/m 2 min 0 min 263 W/m 6,4 km/h (2 Bft) 95,74 %
22.10.2019 15:14 16,1 C 17,2 C 15,0 C 81 % 1024,3 hPa 0,0 l/m 2 min 0 min 309 W/m 12,9 km/h (3 Bft) 95,74 %
22.10.2019 15:16 16,1 C 17,2 C 15,0 C 81 % 1024,3 hPa 0,0 l/m 2 min 0 min 260 W/m 12,9 km/h (3 Bft) 95,74 %
22.10.2019 15:18 16,1 C 16,7 C 15,0 C 81 % 1024,3 hPa 0,0 l/m 2 min 0 min 258 W/m 16,1 km/h (3 Bft) 95,74 %
22.10.2019 15:20 16,1 C 16,7 C 15,0 C 81 % 1024,2 hPa 0,0 l/m 2 min 0 min 211 W/m 3,2 km/h (1 Bft) 95,65 %
22.10.2019 15:22 16,2 C 16,7 C 15,0 C 81 % 1024,2 hPa 0,0 l/m 0 min 0 min 151 W/m 12,9 km/h (3 Bft) 95,74 %
22.10.2019 15:24 16,1 C 15,6 C 15,0 C 81 % 1024,1 hPa 0,0 l/m 0 min 0 min 110 W/m 12,9 km/h (3 Bft) 97,87 %
22.10.2019 15:26 16,1 C 15,6 C 14,4 C 81 % 1024,2 hPa 0,0 l/m 0 min 0 min 86 W/m 6,4 km/h (2 Bft) 95,74 %
22.10.2019 15:28 16,1 C 15,6 C 14,4 C 81 % 1024,2 hPa 0,0 l/m 0 min 0 min 74 W/m 6,4 km/h (2 Bft) 95,74 %
22.10.2019 15:30 16,1 C 15,0 C 14,4 C 80 % 1024,2 hPa 0,0 l/m 0 min 0 min 64 W/m 6,4 km/h (2 Bft) 95,74 %
22.10.2019 15:32 16,1 C 15,0 C 13,9 C 80 % 1024,2 hPa 0,0 l/m 0 min 0 min 63 W/m 12,9 km/h (3 Bft) 95,74 %
22.10.2019 15:34 16,0 C 14,4 C 13,9 C 80 % 1024,1 hPa 0,0 l/m 0 min 0 min 68 W/m 12,9 km/h (3 Bft) 97,83 %
22.10.2019 15:36 15,9 C 14,4 C 13,9 C 80 % 1024,0 hPa 0,0 l/m 0 min 0 min 73 W/m 12,9 km/h (3 Bft) 97,87 %
22.10.2019 15:38 15,9 C 14,4 C 13,9 C 80 % 1024,0 hPa 0,0 l/m 0 min 0 min 77 W/m 12,9 km/h (3 Bft) 97,87 %
22.10.2019 15:40 15,8 C 14,4 C 13,9 C 81 % 1024,1 hPa 0,0 l/m 0 min 0 min 73 W/m 3,2 km/h (1 Bft) 97,87 %
22.10.2019 15:42 15,8 C 14,4 C 13,9 C 81 % 1024,1 hPa 0,0 l/m 0 min 0 min 74 W/m 6,4 km/h (2 Bft) 97,87 %
22.10.2019 15:44 15,8 C 14,4 C 13,9 C 81 % 1024,1 hPa 0,0 l/m 0 min 0 min 78 W/m 6,4 km/h (2 Bft) 100,00 %
22.10.2019 15:46 15,7 C 14,4 C 13,9 C 82 % 1024,2 hPa 0,0 l/m 0 min 0 min 76 W/m 6,4 km/h (2 Bft) 100,00 %
22.10.2019 15:48 15,7 C 14,4 C 13,9 C 81 % 1024,2 hPa 0,0 l/m 0 min 0 min 75 W/m 12,9 km/h (3 Bft) 100,00 %
22.10.2019 15:50 15,6 C 14,4 C 13,9 C 81 % 1024,3 hPa 0,0 l/m 0 min 0 min 74 W/m 6,4 km/h (2 Bft) 100,00 %
22.10.2019 15:52 15,6 C 14,4 C 13,9 C 81 % 1024,3 hPa 0,0 l/m 0 min 0 min 75 W/m 12,9 km/h (3 Bft) 100,00 %
22.10.2019 15:54 15,6 C 14,4 C 13,9 C 82 % 1024,3 hPa 0,0 l/m 0 min 0 min 81 W/m 6,4 km/h (2 Bft) 100,00 %
22.10.2019 15:56 15,5 C 14,4 C 13,9 C 82 % 1024,3 hPa 0,0 l/m 0 min 0 min 86 W/m 6,4 km/h (2 Bft) 100,00 %
22.10.2019 15:58 15,5 C 14,4 C 13,9 C 82 % 1024,3 hPa 0,0 l/m 0 min 0 min 90 W/m 12,9 km/h (3 Bft) 97,87 %
22.10.2019 16:00 15,4 C 14,4 C 13,9 C 82 % 1024,3 hPa 0,0 l/m 0 min 0 min 86 W/m 16,1 km/h (3 Bft) 100,00 %
22.10.2019 16:02 15,4 C 14,4 C 13,9 C 82 % 1024,3 hPa 0,0 l/m 0 min 0 min 78 W/m 12,9 km/h (3 Bft) 100,00 %
22.10.2019 16:04 15,3 C 14,4 C 13,9 C 83 % 1024,2 hPa 0,0 l/m 0 min 0 min 78 W/m 6,4 km/h (2 Bft) 100,00 %
22.10.2019 16:06 15,3 C 14,4 C 13,9 C 83 % 1024,2 hPa 0,0 l/m 0 min 0 min 87 W/m 16,1 km/h (3 Bft) 97,87 %
22.10.2019 16:08 15,3 C 14,4 C 13,9 C 83 % 1024,1 hPa 0,0 l/m 0 min 0 min 100 W/m 12,9 km/h (3 Bft) 100,00 %
22.10.2019 16:10 15,2 C 14,4 C 13,9 C 83 % 1024,1 hPa 0,0 l/m 0 min 0 min 105 W/m 9,7 km/h (2 Bft) 100,00 %
22.10.2019 16:12 15,2 C 14,4 C 13,9 C 83 % 1024,0 hPa 0,0 l/m 0 min 0 min 108 W/m 12,9 km/h (3 Bft) 100,00 %
22.10.2019 16:14 15,2 C 14,4 C 13,9 C 83 % 1024,1 hPa 0,0 l/m 0 min 0 min 118 W/m 12,9 km/h (3 Bft) 100,00 %
22.10.2019 16:16 15,1 C 14,4 C 13,9 C 83 % 1024,1 hPa 0,0 l/m 0 min 0 min 98 W/m 16,1 km/h (3 Bft) 100,00 %
22.10.2019 16:18 15,1 C 14,4 C 13,9 C 83 % 1024,2 hPa 0,0 l/m 0 min 0 min 67 W/m 6,4 km/h (2 Bft) 95,74 %
22.10.2019 16:20 15,1 C 14,4 C 13,9 C 84 % 1024,3 hPa 0,0 l/m 0 min 0 min 61 W/m 12,9 km/h (3 Bft) 97,83 %
22.10.2019 16:22 15,1 C 14,4 C 13,9 C 84 % 1024,3 hPa 0,0 l/m 0 min 0 min 63 W/m 16,1 km/h (3 Bft) 95,74 %
22.10.2019 16:24 15,0 C 14,4 C 13,3 C 84 % 1024,3 hPa 0,0 l/m 0 min 0 min 68 W/m 16,1 km/h (3 Bft) 95,74 %
22.10.2019 16:26 15,0 C 14,4 C 13,3 C 84 % 1024,3 hPa 0,0 l/m 0 min 0 min 75 W/m 6,4 km/h (2 Bft) 97,87 %
22.10.2019 16:28 14,9 C 14,4 C 13,3 C 84 % 1024,3 hPa 0,0 l/m 0 min 0 min 77 W/m 12,9 km/h (3 Bft) 97,87 %
22.10.2019 16:30 14,9 C 14,4 C 13,9 C 84 % 1024,4 hPa 0,0 l/m 0 min 0 min 79 W/m 6,4 km/h (2 Bft) 95,74 %
22.10.2019 16:32 14,9 C 14,4 C 13,9 C 84 % 1024,4 hPa 0,0 l/m 0 min 0 min 81 W/m 6,4 km/h (2 Bft) 97,83 %
22.10.2019 16:34 14,9 C 14,4 C 13,9 C 84 % 1024,3 hPa 0,0 l/m 0 min 0 min 83 W/m 6,4 km/h (2 Bft) 97,87 %
22.10.2019 16:36 14,8 C 14,4 C 13,9 C 84 % 1024,3 hPa 0,0 l/m 0 min 0 min 83 W/m 9,7 km/h (2 Bft) 95,74 %
22.10.2019 16:38 14,8 C 14,4 C 13,9 C 84 % 1024,3 hPa 0,0 l/m 0 min 0 min 79 W/m 6,4 km/h (2 Bft) 97,87 %
22.10.2019 16:40 14,8 C 14,4 C 13,3 C 85 % 1024,3 hPa 0,0 l/m 0 min 0 min 73 W/m 12,9 km/h (3 Bft) 97,87 %
22.10.2019 16:42 14,8 C 14,4 C 13,9 C 85 % 1024,3 hPa 0,0 l/m 0 min 0 min 77 W/m 0,0 km/h (0 Bft) 97,87 %
22.10.2019 16:44 14,8 C 14,4 C 13,9 C 85 % 1024,4 hPa 0,0 l/m 0 min 0 min 102 W/m 6,4 km/h (2 Bft) 95,65 %
22.10.2019 16:46 14,8 C 14,4 C 13,9 C 85 % 1024,4 hPa 0,0 l/m 2 min 0 min 115 W/m 6,4 km/h (2 Bft) 97,87 %
22.10.2019 16:48 14,8 C 14,4 C 13,9 C 85 % 1024,4 hPa 0,0 l/m 0 min 0 min 111 W/m 16,1 km/h (3 Bft) 97,87 %
22.10.2019 16:50 14,7 C 14,4 C 13,9 C 85 % 1024,4 hPa 0,0 l/m 0 min 0 min 100 W/m 16,1 km/h (3 Bft) 97,87 %
22.10.2019 16:52 14,8 C 14,4 C 13,9 C 85 % 1024,4 hPa 0,0 l/m 0 min 0 min 99 W/m 12,9 km/h (3 Bft) 97,87 %
22.10.2019 16:54 14,7 C 14,4 C 13,9 C 85 % 1024,4 hPa 0,0 l/m 2 min 0 min 111 W/m 12,9 km/h (3 Bft) 95,65 %
22.10.2019 16:56 14,7 C 15,0 C 13,9 C 85 % 1024,4 hPa 0,0 l/m 2 min 0 min 131 W/m 6,4 km/h (2 Bft) 97,87 %
22.10.2019 16:58 14,7 C 15,0 C 13,9 C 85 % 1024,3 hPa 0,0 l/m 2 min 0 min 125 W/m 0,0 km/h (0 Bft) 97,87 %
22.10.2019 17:00 14,7 C 15,0 C 13,9 C 85 % 1024,4 hPa 0,0 l/m 2 min 0 min 110 W/m 0,0 km/h (0 Bft) 95,74 %
22.10.2019 17:02 14,7 C 15,0 C 13,9 C 85 % 1024,3 hPa 0,0 l/m 2 min 0 min 100 W/m 6,4 km/h (2 Bft) 100,00 %
22.10.2019 17:04 14,7 C 14,4 C 13,3 C 85 % 1024,3 hPa 0,0 l/m 0 min 0 min 93 W/m 6,4 km/h (2 Bft) 100,00 %
22.10.2019 17:06 14,7 C 14,4 C 13,3 C 85 % 1024,2 hPa 0,0 l/m 0 min 0 min 76 W/m 3,2 km/h (1 Bft) 97,83 %
22.10.2019 17:08 14,7 C 14,4 C 13,3 C 85 % 1024,2 hPa 0,0 l/m 0 min 0 min 67 W/m 3,2 km/h (1 Bft) 100,00 %
22.10.2019 17:10 14,7 C 13,9 C 13,3 C 85 % 1024,3 hPa 0,0 l/m 0 min 0 min 63 W/m 6,4 km/h (2 Bft) 100,00 %
22.10.2019 17:12 14,7 C 13,9 C 13,3 C 84 % 1024,3 hPa 0,0 l/m 0 min 0 min 60 W/m 12,9 km/h (3 Bft) 100,00 %
22.10.2019 17:14 14,7 C 13,9 C 13,3 C 84 % 1024,3 hPa 0,0 l/m 0 min 0 min 56 W/m 3,2 km/h (1 Bft) 100,00 %
22.10.2019 17:16 14,7 C 13,9 C 12,8 C 84 % 1024,3 hPa 0,0 l/m 0 min 0 min 49 W/m 6,4 km/h (2 Bft) 100,00 %
22.10.2019 17:18 14,7 C 13,9 C 12,8 C 84 % 1024,2 hPa 0,0 l/m 0 min 0 min 46 W/m 3,2 km/h (1 Bft) 100,00 %
22.10.2019 17:20 14,6 C 13,9 C 12,8 C 84 % 1024,2 hPa 0,0 l/m 0 min 0 min 44 W/m 3,2 km/h (1 Bft) 100,00 %
22.10.2019 17:22 14,6 C 13,9 C 12,8 C 85 % 1024,2 hPa 0,0 l/m 0 min 0 min 41 W/m 12,9 km/h (3 Bft) 97,87 %
22.10.2019 17:24 14,6 C 13,9 C 12,8 C 85 % 1024,2 hPa 0,0 l/m 0 min 0 min 41 W/m 6,4 km/h (2 Bft) 100,00 %
22.10.2019 17:26 14,6 C 13,3 C 12,8 C 85 % 1024,2 hPa 0,0 l/m 0 min 0 min 40 W/m 0,0 km/h (0 Bft) 97,87 %
22.10.2019 17:28 14,6 C 13,3 C 12,8 C 85 % 1024,2 hPa 0,0 l/m 0 min 0 min 33 W/m 0,0 km/h (0 Bft) 100,00 %
22.10.2019 17:30 14,6 C 13,3 C 12,8 C 85 % 1024,1 hPa 0,0 l/m 0 min 0 min 30 W/m 12,9 km/h (3 Bft) 100,00 %
22.10.2019 17:32 14,6 C 13,3 C 12,8 C 85 % 1024,1 hPa 0,0 l/m 0 min 0 min 33 W/m 0,0 km/h (0 Bft) 100,00 %
22.10.2019 17:34 14,5 C 13,3 C 12,8 C 85 % 1024,1 hPa 0,0 l/m 0 min 0 min 34 W/m 0,0 km/h (0 Bft) 100,00 %
22.10.2019 17:36 14,5 C 13,3 C 12,8 C 85 % 1024,1 hPa 0,0 l/m 0 min 0 min 32 W/m 0,0 km/h (0 Bft) 100,00 %
22.10.2019 17:38 14,4 C 13,3 C 12,2 C 85 % 1024,1 hPa 0,0 l/m 0 min 0 min 29 W/m 3,2 km/h (1 Bft) 100,00 %
22.10.2019 17:40 14,4 C 13,3 C 12,2 C 85 % 1024,1 hPa 0,0 l/m 0 min 0 min 26 W/m 3,2 km/h (1 Bft) 100,00 %
22.10.2019 17:42 14,4 C 13,3 C 12,2 C 85 % 1024,1 hPa 0,0 l/m 0 min 0 min 25 W/m 0,0 km/h (0 Bft) 97,83 %
22.10.2019 17:44 14,4 C 12,8 C 12,2 C 85 % 1024,0 hPa 0,0 l/m 0 min 0 min 25 W/m 0,0 km/h (0 Bft) 97,87 %
22.10.2019 17:46 14,3 C 12,8 C 12,2 C 85 % 1024,0 hPa 0,0 l/m 0 min 0 min 25 W/m 0,0 km/h (0 Bft) 97,87 %
22.10.2019 17:48 14,3 C 12,8 C 12,2 C 85 % 1024,0 hPa 0,0 l/m 0 min 0 min 25 W/m 0,0 km/h (0 Bft) 95,74 %
22.10.2019 17:50 14,3 C 12,8 C 12,2 C 85 % 1024,0 hPa 0,0 l/m 0 min 0 min 25 W/m 0,0 km/h (0 Bft) 95,74 %
22.10.2019 17:52 14,3 C 12,8 C 11,7 C 85 % 1023,9 hPa 0,0 l/m 0 min 0 min 25 W/m 0,0 km/h (0 Bft) 95,65 %
22.10.2019 17:54 14,3 C 12,8 C 11,7 C 85 % 1023,9 hPa 0,0 l/m 0 min 0 min 25 W/m 0,0 km/h (0 Bft) 95,74 %
22.10.2019 17:56 14,3 C 12,8 C 11,7 C 85 % 1023,9 hPa 0,0 l/m 0 min 0 min 25 W/m 0,0 km/h (0 Bft) 95,74 %
22.10.2019 17:58 14,3 C 12,8 C 11,7 C 85 % 1024,0 hPa 0,0 l/m 0 min 0 min 25 W/m 0,0 km/h (0 Bft) 93,62 %
22.10.2019 18:00 14,3 C 12,8 C 11,7 C 85 % 1024,0 hPa 0,0 l/m 0 min 0 min 25 W/m 0,0 km/h (0 Bft) 95,74 %
22.10.2019 18:02 14,3 C 12,8 C 11,7 C 85 % 1024,0 hPa 0,0 l/m 0 min 0 min 25 W/m 0,0 km/h (0 Bft) 93,62 %
22.10.2019 18:04 14,3 C 12,8 C 11,7 C 85 % 1024,1 hPa 0,0 l/m 2 min 0 min 25 W/m 0,0 km/h (0 Bft) 95,65 %
22.10.2019 18:08 14,2 C 12,8 C 11,7 C 86 % 1024,0 hPa 0,0 l/m 4 min 0 min 21 W/m 0,0 km/h (0 Bft) 95,74 %
22.10.2019 18:10 14,1 C 12,8 C 11,7 C 86 % 1023,9 hPa 0,0 l/m 0 min 0 min 19 W/m 3,2 km/h (1 Bft) 93,62 %
22.10.2019 18:12 14,1 C 12,2 C 11,7 C 86 % 1023,9 hPa 0,0 l/m 0 min 0 min 18 W/m 3,2 km/h (1 Bft) 95,74 %
22.10.2019 18:14 14,1 C 12,2 C 11,7 C 86 % 1023,9 hPa 0,0 l/m 0 min 0 min 14 W/m 0,0 km/h (0 Bft) 95,74 %
22.10.2019 18:16 14,1 C 12,2 C 11,7 C 86 % 1024,0 hPa 0,0 l/m 0 min 0 min 11 W/m 3,2 km/h (1 Bft) 93,48 %
22.10.2019 18:18 14,0 C 12,2 C 11,7 C 86 % 1024,0 hPa 0,0 l/m 0 min 0 min 11 W/m 3,2 km/h (1 Bft) 93,62 %
22.10.2019 18:20 13,9 C 12,2 C 11,7 C 87 % 1024,0 hPa 0,0 l/m 0 min 0 min 9 W/m 0,0 km/h (0 Bft) 97,87 %
22.10.2019 18:22 13,9 C 12,2 C 11,7 C 87 % 1024,1 hPa 0,0 l/m 0 min 0 min 8 W/m 6,4 km/h (2 Bft) 93,62 %
22.10.2019 18:24 13,9 C 12,2 C 11,7 C 87 % 1024,1 hPa 0,0 l/m 0 min 0 min 7 W/m 0,0 km/h (0 Bft) 93,62 %
22.10.2019 18:26 13,8 C 12,2 C 11,7 C 87 % 1024,1 hPa 0,0 l/m 0 min 0 min 6 W/m 3,2 km/h (1 Bft) 95,74 %
22.10.2019 18:28 13,8 C 12,2 C 11,7 C 87 % 1024,1 hPa 0,0 l/m 0 min 0 min 5 W/m 3,2 km/h (1 Bft) 95,65 %
22.10.2019 18:30 13,8 C 12,2 C 11,7 C 87 % 1024,1 hPa 0,0 l/m 0 min 0 min 5 W/m 0,0 km/h (0 Bft) 95,74 %
22.10.2019 18:32 13,7 C 12,2 C 11,7 C 87 % 1024,1 hPa 0,0 l/m 0 min 0 min 5 W/m 0,0 km/h (0 Bft) 93,62 %
22.10.2019 18:34 13,7 C 11,7 C 11,7 C 87 % 1024,2 hPa 0,0 l/m 0 min 0 min 0 W/m 6,4 km/h (2 Bft) 95,74 %
22.10.2019 18:36 13,6 C 11,7 C 11,1 C 87 % 1024,2 hPa 0,0 l/m 0 min 0 min 0 W/m 0,0 km/h (0 Bft) 95,74 %
22.10.2019 18:38 13,6 C 11,7 C 11,1 C 88 % 1024,2 hPa 0,0 l/m 0 min 0 min 0 W/m 0,0 km/h (0 Bft) 95,74 %
22.10.2019 18:40 13,6 C 11,7 C 11,1 C 88 % 1024,2 hPa 0,0 l/m 0 min 0 min 0 W/m 0,0 km/h (0 Bft) 95,65 %
22.10.2019 18:42 13,6 C 11,7 C 11,1 C 88 % 1024,2 hPa 0,0 l/m 0 min 0 min 0 W/m 0,0 km/h (0 Bft) 97,87 %
22.10.2019 18:44 13,5 C 11,7 C 11,1 C 88 % 1024,3 hPa 0,0 l/m 0 min 0 min 0 W/m 0,0 km/h (0 Bft) 97,87 %
22.10.2019 18:46 13,4 C 11,7 C 11,1 C 88 % 1024,4 hPa 0,0 l/m 0 min 0 min 0 W/m 3,2 km/h (1 Bft) 97,87 %
22.10.2019 18:48 13,4 C 11,7 C 11,1 C 88 % 1024,4 hPa 0,0 l/m 0 min 0 min 0 W/m 0,0 km/h (0 Bft) 97,87 %
22.10.2019 18:50 13,4 C 11,7 C 11,1 C 88 % 1024,4 hPa 0,0 l/m 0 min 0 min 0 W/m 0,0 km/h (0 Bft) 100,00 %
22.10.2019 18:52 13,3 C 11,7 C 11,1 C 88 % 1024,4 hPa 0,0 l/m 0 min 0 min 0 W/m 3,2 km/h (1 Bft) 100,00 %
22.10.2019 18:54 13,3 C 11,7 C 11,1 C 88 % 1024,3 hPa 0,0 l/m 0 min 0 min 0 W/m 3,2 km/h (1 Bft) 100,00 %
22.10.2019 18:56 13,3 C 11,7 C 11,1 C 88 % 1024,3 hPa 0,0 l/m 0 min 0 min 0 W/m 3,2 km/h (1 Bft) 100,00 %
22.10.2019 18:58 13,2 C 11,7 C 11,1 C 88 % 1024,3 hPa 0,0 l/m 0 min 0 min 0 W/m 3,2 km/h (1 Bft) 97,87 %
22.10.2019 19:00 13,2 C 11,7 C 11,1 C 89 % 1024,4 hPa 0,0 l/m 0 min 0 min 0 W/m 3,2 km/h (1 Bft) 100,00 %
22.10.2019 19:02 13,1 C 11,7 C 11,1 C 89 % 1024,3 hPa 0,0 l/m 0 min 0 min 0 W/m 0,0 km/h (0 Bft) 97,83 %
22.10.2019 19:04 13,1 C 11,7 C 11,1 C 89 % 1024,3 hPa 0,0 l/m 0 min 0 min 0 W/m 0,0 km/h (0 Bft) 95,74 %
22.10.2019 19:06 13,1 C 11,7 C 11,1 C 89 % 1024,4 hPa 0,0 l/m 0 min 0 min 0 W/m 3,2 km/h (1 Bft) 97,87 %
22.10.2019 19:08 13,1 C 11,7 C 11,1 C 89 % 1024,3 hPa 0,0 l/m 0 min 0 min 0 W/m 0,0 km/h (0 Bft) 97,87 %
22.10.2019 19:10 13,0 C 11,1 C 10,6 C 89 % 1024,4 hPa 0,0 l/m 0 min 0 min 0 W/m 0,0 km/h (0 Bft) 97,87 %
22.10.2019 19:12 12,9 C 11,1 C 10,6 C 89 % 1024,3 hPa 0,0 l/m 0 min 0 min 0 W/m 0,0 km/h (0 Bft) 95,74 %
22.10.2019 19:14 12,9 C 11,1 C 10,6 C 89 % 1024,4 hPa 0,0 l/m 0 min 0 min 0 W/m 0,0 km/h (0 Bft) 97,83 %
22.10.2019 19:16 12,9 C 11,1 C 10,6 C 89 % 1024,4 hPa 0,0 l/m 0 min 0 min 0 W/m 0,0 km/h (0 Bft) 95,74 %
22.10.2019 19:18 12,9 C 11,1 C 10,6 C 89 % 1024,4 hPa 0,0 l/m 0 min 0 min 0 W/m 3,2 km/h (1 Bft) 95,74 %
22.10.2019 19:20 12,8 C 11,1 C 10,0 C 89 % 1024,4 hPa 0,0 l/m 0 min 0 min 0 W/m 0,0 km/h (0 Bft) 95,74 %
22.10.2019 19:22 12,8 C 11,1 C 10,0 C 89 % 1024,5 hPa 0,0 l/m 0 min 0 min 0 W/m 0,0 km/h (0 Bft) 97,87 %
22.10.2019 19:24 12,8 C 11,1 C 10,0 C 89 % 1024,5 hPa 0,0 l/m 0 min 0 min 0 W/m 0,0 km/h (0 Bft) 97,87 %
22.10.2019 19:26 12,8 C 10,6 C 10,0 C 89 % 1024,5 hPa 0,0 l/m 0 min 0 min 0 W/m 0,0 km/h (0 Bft) 97,83 %
22.10.2019 19:28 12,7 C 10,6 C 10,0 C 89 % 1024,5 hPa 0,0 l/m 0 min 0 min 0 W/m 0,0 km/h (0 Bft) 97,87 %
22.10.2019 19:30 12,7 C 10,6 C 10,0 C 89 % 1024,6 hPa 0,0 l/m 0 min 0 min 0 W/m 0,0 km/h (0 Bft) 95,74 %
22.10.2019 19:32 12,7 C 10,6 C 9,4 C 89 % 1024,6 hPa 0,0 l/m 0 min 0 min 0 W/m 0,0 km/h (0 Bft) 97,87 %
22.10.2019 19:34 12,6 C 10,0 C 9,4 C 89 % 1024,5 hPa 0,0 l/m 0 min 0 min 0 W/m 0,0 km/h (0 Bft) 97,87 %
22.10.2019 19:36 12,6 C 10,0 C 9,4 C 89 % 1024,5 hPa 0,0 l/m 0 min 0 min 0 W/m 0,0 km/h (0 Bft) 93,62 %
22.10.2019 19:38 12,5 C 9,4 C 9,4 C 89 % 1024,5 hPa 0,0 l/m 0 min 0 min 0 W/m 0,0 km/h (0 Bft) 97,83 %
22.10.2019 19:40 12,4 C 9,4 C 9,4 C 89 % 1024,4 hPa 0,0 l/m 0 min 0 min 0 W/m 0,0 km/h (0 Bft) 97,87 %
22.10.2019 19:42 12,4 C 9,4 C 8,9 C 89 % 1024,4 hPa 0,0 l/m 0 min 0 min 0 W/m 0,0 km/h (0 Bft) 97,87 %
22.10.2019 19:44 12,3 C 9,4 C 8,9 C 89 % 1024,5 hPa 0,0 l/m 0 min 0 min 0 W/m 0,0 km/h (0 Bft) 97,87 %
22.10.2019 19:46 12,3 C 9,4 C 8,9 C 89 % 1024,5 hPa 0,0 l/m 0 min 0 min 0 W/m 0,0 km/h (0 Bft) 95,74 %
22.10.2019 19:48 12,2 C 9,4 C 8,9 C 89 % 1024,4 hPa 0,0 l/m 0 min 0 min 0 W/m 0,0 km/h (0 Bft) 97,83 %
22.10.2019 19:50 12,2 C 9,4 C 8,9 C 89 % 1024,4 hPa 0,0 l/m 0 min 0 min 0 W/m 0,0 km/h (0 Bft) 97,87 %
22.10.2019 19:52 12,1 C 9,4 C 8,9 C 89 % 1024,4 hPa 0,0 l/m 0 min 0 min 0 W/m 0,0 km/h (0 Bft) 97,87 %
22.10.2019 19:53 12,1 C 9,4 C 8,9 C 89 % 1024,4 hPa 0,0 l/m 0 min 0 min 0 W/m 0,0 km/h (0 Bft) 97,87 %
22.10.2019 19:56 12,0 C 8,9 C 8,9 C 89 % 1024,4 hPa 0,0 l/m 0 min 0 min 0 W/m 0,0 km/h (0 Bft) 96,55 %
22.10.2019 19:58 11,9 C 8,9 C 8,9 C 89 % 1024,4 hPa 0,0 l/m 0 min 0 min 0 W/m 0,0 km/h (0 Bft) 100,00 %
22.10.2019 20:00 11,9 C 8,9 C 8,9 C 89 % 1024,4 hPa 0,0 l/m 0 min 0 min 0 W/m 0,0 km/h (0 Bft) 97,87 %
22.10.2019 20:02 11,8 C 8,9 C 8,9 C 89 % 1024,3 hPa 0,0 l/m 0 min 0 min 0 W/m 0,0 km/h (0 Bft) 100,00 %
22.10.2019 20:04 11,8 C 9,4 C 8,9 C 89 % 1024,3 hPa 0,0 l/m 0 min 0 min 0 W/m 0,0 km/h (0 Bft) 100,00 %
22.10.2019 20:06 11,7 C 9,4 C 8,9 C 89 % 1024,3 hPa 0,0 l/m 0 min 0 min 0 W/m 0,0 km/h (0 Bft) 97,14 %
22.10.2019 20:08 11,7 C 8,9 C 8,9 C 89 % 1024,4 hPa 0,0 l/m 0 min 0 min 0 W/m 0,0 km/h (0 Bft) 100,00 %
22.10.2019 20:10 11,6 C 8,9 C 8,9 C 89 % 1024,4 hPa 0,0 l/m 0 min 0 min 0 W/m 0,0 km/h (0 Bft) 100,00 %
22.10.2019 20:12 11,6 C 9,4 C 8,9 C 89 % 1024,3 hPa 0,0 l/m 0 min 0 min 0 W/m 0,0 km/h (0 Bft) 100,00 %
22.10.2019 20:14 11,5 C 9,4 C 8,9 C 89 % 1024,3 hPa 0,0 l/m 0 min 0 min 0 W/m 0,0 km/h (0 Bft) 97,87 %
22.10.2019 20:16 11,5 C 9,4 C 8,9 C 90 % 1024,3 hPa 0,0 l/m 0 min 0 min 0 W/m 0,0 km/h (0 Bft) 100,00 %
22.10.2019 20:18 11,4 C 9,4 C 8,9 C 90 % 1024,3 hPa 0,0 l/m 0 min 0 min 0 W/m 0,0 km/h (0 Bft) 97,87 %
22.10.2019 20:20 11,4 C 9,4 C 9,4 C 90 % 1024,4 hPa 0,0 l/m 0 min 0 min 0 W/m 0,0 km/h (0 Bft) 97,83 %
22.10.2019 20:22 11,4 C 9,4 C 9,4 C 90 % 1024,4 hPa 0,0 l/m 0 min 0 min 0 W/m 0,0 km/h (0 Bft) 97,87 %
22.10.2019 20:24 11,3 C 9,4 C 9,4 C 90 % 1024,3 hPa 0,0 l/m 0 min 0 min 0 W/m 0,0 km/h (0 Bft) 100,00 %
22.10.2019 20:26 11,3 C 9,4 C 9,4 C 90 % 1024,3 hPa 0,0 l/m 0 min 0 min 0 W/m 0,0 km/h (0 Bft) 95,74 %
22.10.2019 20:28 11,3 C 9,4 C 9,4 C 90 % 1024,3 hPa 0,0 l/m 0 min 0 min 0 W/m 0,0 km/h (0 Bft) 97,87 %
22.10.2019 20:30 11,3 C 9,4 C 9,4 C 90 % 1024,2 hPa 0,0 l/m 0 min 0 min 0 W/m 0,0 km/h (0 Bft) 97,87 %
22.10.2019 20:32 11,2 C 10,0 C 9,4 C 90 % 1024,2 hPa 0,0 l/m 0 min 0 min 0 W/m 0,0 km/h (0 Bft) 97,83 %
22.10.2019 20:34 11,2 C 10,0 C 9,4 C 91 % 1024,2 hPa 0,0 l/m 0 min 0 min 0 W/m 0,0 km/h (0 Bft) 97,87 %
22.10.2019 20:36 11,2 C 10,0 C 9,4 C 91 % 1024,2 hPa 0,0 l/m 0 min 0 min 0 W/m 0,0 km/h (0 Bft) 97,87 %
22.10.2019 20:38 11,2 C 10,0 C 9,4 C 91 % 1024,2 hPa 0,0 l/m 0 min 0 min 0 W/m 0,0 km/h (0 Bft) 97,87 %
22.10.2019 20:40 11,2 C 10,0 C 9,4 C 91 % 1024,2 hPa 0,0 l/m 0 min 0 min 0 W/m 0,0 km/h (0 Bft) 97,87 %
22.10.2019 20:42 11,2 C 10,0 C 9,4 C 91 % 1024,2 hPa 0,0 l/m 0 min 0 min 0 W/m 0,0 km/h (0 Bft) 97,87 %
22.10.2019 20:44 11,2 C 10,0 C 10,0 C 91 % 1024,1 hPa 0,0 l/m 0 min 0 min 0 W/m 0,0 km/h (0 Bft) 97,83 %
22.10.2019 20:46 11,2 C 10,6 C 10,0 C 91 % 1024,1 hPa 0,0 l/m 0 min 0 min 0 W/m 0,0 km/h (0 Bft) 97,87 %
22.10.2019 20:48 11,2 C 10,6 C 10,0 C 92 % 1024,1 hPa 0,0 l/m 0 min 0 min 0 W/m 0,0 km/h (0 Bft) 97,87 %
22.10.2019 20:50 11,2 C 10,6 C 10,0 C 92 % 1024,1 hPa 0,0 l/m 0 min 0 min 0 W/m 3,2 km/h (1 Bft) 97,87 %
22.10.2019 20:52 11,2 C 10,6 C 10,0 C 92 % 1024,1 hPa 0,0 l/m 0 min 0 min 0 W/m 0,0 km/h (0 Bft) 97,87 %
22.10.2019 20:54 11,2 C 10,6 C 10,0 C 93 % 1024,1 hPa 0,0 l/m 0 min 0 min 0 W/m 0,0 km/h (0 Bft) 95,74 %
22.10.2019 20:56 11,3 C 10,6 C 10,0 C 93 % 1024,2 hPa 0,0 l/m 0 min 0 min 0 W/m 0,0 km/h (0 Bft) 95,65 %
22.10.2019 20:58 11,3 C 10,6 C 10,0 C 93 % 1024,1 hPa 0,0 l/m 0 min 0 min 0 W/m 0,0 km/h (0 Bft) 95,74 %
22.10.2019 21:00 11,3 C 10,6 C 10,0 C 93 % 1024,2 hPa 0,0 l/m 0 min 0 min 0 W/m 0,0 km/h (0 Bft) 97,87 %
22.10.2019 21:02 11,3 C 10,6 C 10,0 C 93 % 1024,2 hPa 0,0 l/m 0 min 0 min 0 W/m 0,0 km/h (0 Bft) 95,74 %
22.10.2019 21:04 11,3 C 10,6 C 10,0 C 93 % 1024,2 hPa 0,0 l/m 0 min 0 min 0 W/m 3,2 km/h (1 Bft) 97,87 %
22.10.2019 21:06 11,3 C 10,6 C 10,6 C 94 % 1024,2 hPa 0,0 l/m 0 min 0 min 0 W/m 3,2 km/h (1 Bft) 97,87 %
22.10.2019 21:08 11,3 C 10,6 C 10,6 C 94 % 1024,2 hPa 0,0 l/m 0 min 0 min 0 W/m 3,2 km/h (1 Bft) 100,00 %
22.10.2019 21:10 11,3 C 10,6 C 10,6 C 94 % 1024,3 hPa 0,0 l/m 0 min 0 min 0 W/m 3,2 km/h (1 Bft) 100,00 %
22.10.2019 21:12 11,3 C 10,6 C 10,6 C 94 % 1024,3 hPa 0,0 l/m 0 min 0 min 0 W/m 3,2 km/h (1 Bft) 100,00 %
22.10.2019 21:14 11,3 C 10,6 C 10,6 C 94 % 1024,2 hPa 0,0 l/m 0 min 0 min 0 W/m 3,2 km/h (1 Bft) 100,00 %
22.10.2019 21:16 11,3 C 10,6 C 10,6 C 94 % 1024,3 hPa 0,0 l/m 0 min 0 min 0 W/m 0,0 km/h (0 Bft) 100,00 %
22.10.2019 21:18 11,3 C 10,6 C 10,6 C 94 % 1024,2 hPa 0,0 l/m 0 min 0 min 0 W/m 3,2 km/h (1 Bft) 100,00 %
22.10.2019 21:20 11,3 C 10,6 C 10,6 C 94 % 1024,2 hPa 0,0 l/m 0 min 0 min 0 W/m 3,2 km/h (1 Bft) 100,00 %
22.10.2019 21:22 11,3 C 10,6 C 10,6 C 94 % 1024,2 hPa 0,0 l/m 0 min 0 min 0 W/m 3,2 km/h (1 Bft) 100,00 %
22.10.2019 21:24 11,3 C 10,6 C 10,6 C 94 % 1024,1 hPa 0,0 l/m 0 min 0 min 0 W/m 0,0 km/h (0 Bft) 100,00 %
22.10.2019 21:26 11,3 C 10,6 C 10,6 C 94 % 1024,1 hPa 0,0 l/m 0 min 0 min 0 W/m 0,0 km/h (0 Bft) 100,00 %
22.10.2019 21:28 11,4 C 11,1 C 10,6 C 95 % 1024,1 hPa 0,0 l/m 0 min 0 min 0 W/m 0,0 km/h (0 Bft) 100,00 %
22.10.2019 21:30 11,4 C 11,1 C 10,6 C 95 % 1024,1 hPa 0,0 l/m 0 min 0 min 0 W/m 3,2 km/h (1 Bft) 100,00 %
22.10.2019 21:32 11,4 C 11,1 C 10,6 C 95 % 1024,1 hPa 0,0 l/m 0 min 0 min 0 W/m 3,2 km/h (1 Bft) 100,00 %
22.10.2019 21:34 11,4 C 11,1 C 10,6 C 95 % 1024,1 hPa 0,0 l/m 0 min 0 min 0 W/m 3,2 km/h (1 Bft) 97,87 %
22.10.2019 21:36 11,4 C 11,1 C 10,6 C 95 % 1024,0 hPa 0,0 l/m 0 min 0 min 0 W/m 3,2 km/h (1 Bft) 100,00 %
22.10.2019 21:38 11,4 C 11,1 C 10,6 C 95 % 1023,9 hPa 0,0 l/m 0 min 0 min 0 W/m 3,2 km/h (1 Bft) 100,00 %
22.10.2019 21:40 11,4 C 11,1 C 10,6 C 95 % 1023,9 hPa 0,0 l/m 0 min 0 min 0 W/m 0,0 km/h (0 Bft) 100,00 %
22.10.2019 21:42 11,4 C 11,1 C 10,6 C 95 % 1023,8 hPa 0,0 l/m 0 min 0 min 0 W/m 0,0 km/h (0 Bft) 100,00 %
22.10.2019 21:44 11,4 C 10,6 C 10,6 C 95 % 1023,8 hPa 0,0 l/m 0 min 0 min 0 W/m 0,0 km/h (0 Bft) 100,00 %
22.10.2019 21:46 11,4 C 10,6 C 10,6 C 95 % 1023,7 hPa 0,0 l/m 0 min 0 min 0 W/m 0,0 km/h (0 Bft) 97,87 %
22.10.2019 21:48 11,4 C 10,6 C 10,6 C 95 % 1023,6 hPa 0,0 l/m 0 min 0 min 0 W/m 0,0 km/h (0 Bft) 97,87 %
22.10.2019 21:50 11,4 C 10,6 C 10,6 C 95 % 1023,6 hPa 0,0 l/m 0 min 0 min 0 W/m 0,0 km/h (0 Bft) 97,87 %
22.10.2019 21:52 11,4 C 10,6 C 10,6 C 95 % 1023,6 hPa 0,0 l/m 0 min 0 min 0 W/m 0,0 km/h (0 Bft) 97,87 %
22.10.2019 21:54 11,4 C 10,6 C 10,6 C 95 % 1023,6 hPa 0,0 l/m 0 min 0 min 0 W/m 0,0 km/h (0 Bft) 95,74 %
22.10.2019 21:56 11,4 C 10,6 C 10,6 C 95 % 1023,6 hPa 0,0 l/m 0 min 0 min 0 W/m 0,0 km/h (0 Bft) 97,83 %
22.10.2019 21:58 11,4 C 10,6 C 10,6 C 95 % 1023,6 hPa 0,0 l/m 0 min 0 min 0 W/m 0,0 km/h (0 Bft) 95,74 %
22.10.2019 22:00 11,4 C 10,6 C 10,6 C 95 % 1023,5 hPa 0,0 l/m 0 min 0 min 0 W/m 0,0 km/h (0 Bft) 97,87 %
22.10.2019 22:02 11,4 C 10,6 C 10,0 C 95 % 1023,5 hPa 0,0 l/m 0 min 0 min 0 W/m 0,0 km/h (0 Bft) 95,74 %
22.10.2019 22:04 11,4 C 10,6 C 10,0 C 95 % 1023,5 hPa 0,0 l/m 0 min 0 min 0 W/m 0,0 km/h (0 Bft) 95,74 %
22.10.2019 22:06 11,4 C 10,6 C 10,0 C 95 % 1023,6 hPa 0,0 l/m 0 min 0 min 0 W/m 0,0 km/h (0 Bft) 93,62 %
22.10.2019 22:08 11,4 C 10,6 C 10,0 C 95 % 1023,7 hPa 0,0 l/m 0 min 0 min 0 W/m 0,0 km/h (0 Bft) 95,65 %
22.10.2019 22:10 11,4 C 10,6 C 10,0 C 95 % 1023,7 hPa 0,0 l/m 0 min 0 min 0 W/m 0,0 km/h (0 Bft) 91,49 %
22.10.2019 22:12 11,4 C 10,6 C 10,0 C 95 % 1023,7 hPa 0,0 l/m 0 min 0 min 0 W/m 0,0 km/h (0 Bft) 95,74 %
22.10.2019 22:14 11,4 C 10,0 C 10,0 C 95 % 1023,8 hPa 0,0 l/m 0 min 0 min 0 W/m 0,0 km/h (0 Bft) 95,74 %
22.10.2019 22:16 11,4 C 10,0 C 10,0 C 95 % 1023,7 hPa 0,0 l/m 0 min 0 min 0 W/m 0,0 km/h (0 Bft) 95,74 %
22.10.2019 22:18 11,4 C 10,0 C 10,0 C 95 % 1023,8 hPa 0,0 l/m 0 min 0 min 0 W/m 0,0 km/h (0 Bft) 95,74 %
22.10.2019 22:20 11,4 C 10,0 C 10,0 C 95 % 1023,8 hPa 0,0 l/m 0 min 0 min 0 W/m 0,0 km/h (0 Bft) 95,65 %
22.10.2019 22:22 11,4 C 10,0 C 10,0 C 95 % 1023,8 hPa 0,0 l/m 0 min 0 min 0 W/m 0,0 km/h (0 Bft) 93,62 %
22.10.2019 22:24 11,4 C 10,0 C 10,0 C 95 % 1023,8 hPa 0,0 l/m 0 min 0 min 0 W/m 0,0 km/h (0 Bft) 95,74 %
22.10.2019 22:26 11,4 C 10,0 C 10,0 C 95 % 1023,8 hPa 0,0 l/m 0 min 0 min 0 W/m 0,0 km/h (0 Bft) 95,74 %
22.10.2019 22:28 11,4 C 10,0 C 10,0 C 95 % 1023,8 hPa 0,0 l/m 0 min 0 min 0 W/m 0,0 km/h (0 Bft) 95,74 %
22.10.2019 22:30 11,4 C 10,0 C 10,0 C 95 % 1023,7 hPa 0,0 l/m 0 min 0 min 0 W/m 0,0 km/h (0 Bft) 95,74 %
22.10.2019 22:32 11,4 C 10,0 C 10,0 C 95 % 1023,7 hPa 0,0 l/m 0 min 0 min 0 W/m 0,0 km/h (0 Bft) 95,65 %
22.10.2019 22:34 11,4 C 10,0 C 10,0 C 95 % 1023,6 hPa 0,0 l/m 0 min 0 min 0 W/m 0,0 km/h (0 Bft) 93,62 %
22.10.2019 22:36 11,3 C 10,0 C 10,0 C 95 % 1023,6 hPa 0,0 l/m 0 min 0 min 0 W/m 0,0 km/h (0 Bft) 95,74 %
22.10.2019 22:38 11,3 C 10,0 C 10,0 C 95 % 1023,6 hPa 0,0 l/m 0 min 0 min 0 W/m 0,0 km/h (0 Bft) 95,74 %
22.10.2019 22:40 11,3 C 10,0 C 10,0 C 95 % 1023,6 hPa 0,0 l/m 0 min 0 min 0 W/m 0,0 km/h (0 Bft) 95,74 %
22.10.2019 22:42 11,3 C 10,0 C 9,4 C 95 % 1023,7 hPa 0,0 l/m 0 min 0 min 0 W/m 0,0 km/h (0 Bft) 97,83 %
22.10.2019 22:44 11,3 C 10,0 C 10,0 C 95 % 1023,8 hPa 0,0 l/m 0 min 0 min 0 W/m 0,0 km/h (0 Bft) 97,87 %
22.10.2019 22:46 11,3 C 10,0 C 10,0 C 95 % 1023,8 hPa 0,0 l/m 0 min 0 min 0 W/m 0,0 km/h (0 Bft) 93,62 %
22.10.2019 22:48 11,3 C 10,0 C 10,0 C 95 % 1023,8 hPa 0,0 l/m 0 min 0 min 0 W/m 0,0 km/h (0 Bft) 95,74 %
22.10.2019 22:50 11,3 C 10,0 C 10,0 C 95 % 1023,8 hPa 0,0 l/m 0 min 0 min 0 W/m 0,0 km/h (0 Bft) 97,87 %
22.10.2019 22:52 11,3 C 10,0 C 10,0 C 95 % 1023,7 hPa 0,0 l/m 0 min 0 min 0 W/m 0,0 km/h (0 Bft) 100,00 %
22.10.2019 22:54 11,2 C 10,0 C 10,0 C 95 % 1023,7 hPa 0,0 l/m 0 min 0 min 0 W/m 0,0 km/h (0 Bft) 97,83 %
22.10.2019 22:56 11,2 C 10,0 C 10,0 C 95 % 1023,6 hPa 0,0 l/m 0 min 0 min 0 W/m 0,0 km/h (0 Bft) 95,74 %
22.10.2019 22:58 11,2 C 10,0 C 10,0 C 95 % 1023,6 hPa 0,0 l/m 0 min 0 min 0 W/m 0,0 km/h (0 Bft) 100,00 %
22.10.2019 23:00 11,2 C 10,0 C 10,0 C 95 % 1023,6 hPa 0,0 l/m 0 min 0 min 0 W/m 0,0 km/h (0 Bft) 97,87 %
22.10.2019 23:02 11,2 C 10,0 C 10,0 C 95 % 1023,7 hPa 0,0 l/m 0 min 0 min 0 W/m 0,0 km/h (0 Bft) 95,74 %
22.10.2019 23:04 11,2 C 10,0 C 10,0 C 95 % 1023,7 hPa 0,0 l/m 0 min 0 min 0 W/m 0,0 km/h (0 Bft) 97,87 %
22.10.2019 23:06 11,2 C 10,0 C 10,0 C 95 % 1023,8 hPa 0,0 l/m 0 min 0 min 0 W/m 0,0 km/h (0 Bft) 97,83 %
22.10.2019 23:08 11,2 C 10,0 C 10,0 C 95 % 1023,7 hPa 0,0 l/m 0 min 0 min 0 W/m 0,0 km/h (0 Bft) 93,62 %
22.10.2019 23:10 11,2 C 10,0 C 10,0 C 95 % 1023,7 hPa 0,0 l/m 0 min 0 min 0 W/m 0,0 km/h (0 Bft) 97,87 %
22.10.2019 23:12 11,2 C 10,0 C 10,0 C 95 % 1023,7 hPa 0,0 l/m 0 min 0 min 0 W/m 0,0 km/h (0 Bft) 97,87 %
22.10.2019 23:14 11,2 C 10,0 C 10,0 C 95 % 1023,7 hPa 0,0 l/m 0 min 0 min 0 W/m 0,0 km/h (0 Bft) 97,87 %
22.10.2019 23:16 11,2 C 10,0 C 10,0 C 95 % 1023,7 hPa 0,0 l/m 0 min 0 min 0 W/m 0,0 km/h (0 Bft) 95,74 %
22.10.2019 23:18 11,1 C 10,0 C 10,0 C 95 % 1023,7 hPa 0,0 l/m 0 min 0 min 0 W/m 0,0 km/h (0 Bft) 95,65 %
22.10.2019 23:20 11,1 C 10,0 C 10,0 C 95 % 1023,7 hPa 0,0 l/m 0 min 0 min 0 W/m 0,0 km/h (0 Bft) 97,87 %
22.10.2019 23:22 11,1 C 10,0 C 10,0 C 95 % 1023,7 hPa 0,0 l/m 0 min 0 min 0 W/m 0,0 km/h (0 Bft) 95,74 %
22.10.2019 23:24 11,1 C 10,0 C 10,0 C 95 % 1023,7 hPa 0,0 l/m 0 min 0 min 0 W/m 0,0 km/h (0 Bft) 97,87 %
22.10.2019 23:26 11,1 C 10,0 C 10,0 C 95 % 1023,7 hPa 0,0 l/m 0 min 0 min 0 W/m 0,0 km/h (0 Bft) 97,87 %
22.10.2019 23:28 11,1 C 10,0 C 10,0 C 95 % 1023,6 hPa 0,0 l/m 0 min 0 min 0 W/m 0,0 km/h (0 Bft) 95,74 %
22.10.2019 23:30 11,1 C 10,0 C 10,0 C 95 % 1023,6 hPa 0,0 l/m 0 min 0 min 0 W/m 0,0 km/h (0 Bft) 97,83 %
22.10.2019 23:32 11,1 C 10,0 C 9,4 C 95 % 1023,6 hPa 0,0 l/m 0 min 0 min 0 W/m 0,0 km/h (0 Bft) 97,87 %
22.10.2019 23:34 11,1 C 10,0 C 9,4 C 95 % 1023,6 hPa 0,0 l/m 0 min 0 min 0 W/m 0,0 km/h (0 Bft) 97,87 %
22.10.2019 23:36 11,1 C 10,0 C 9,4 C 95 % 1023,6 hPa 0,0 l/m 0 min 0 min 0 W/m 0,0 km/h (0 Bft) 97,87 %
22.10.2019 23:38 11,1 C 10,0 C 9,4 C 95 % 1023,6 hPa 0,0 l/m 0 min 0 min 0 W/m 0,0 km/h (0 Bft) 97,87 %
22.10.2019 23:40 11,1 C 10,0 C 9,4 C 95 % 1023,6 hPa 0,0 l/m 0 min 0 min 0 W/m 0,0 km/h (0 Bft) 97,87 %
22.10.2019 23:42 11,1 C 10,0 C 9,4 C 95 % 1023,6 hPa 0,0 l/m 0 min 0 min 0 W/m 0,0 km/h (0 Bft) 97,83 %
22.10.2019 23:44 11,1 C 10,0 C 10,0 C 95 % 1023,6 hPa 0,0 l/m 0 min 0 min 0 W/m 0,0 km/h (0 Bft) 100,00 %
22.10.2019 23:46 11,1 C 10,0 C 10,0 C 95 % 1023,6 hPa 0,0 l/m 0 min 0 min 0 W/m 0,0 km/h (0 Bft) 100,00 %
22.10.2019 23:48 11,1 C 10,6 C 10,0 C 95 % 1023,6 hPa 0,0 l/m 0 min 0 min 0 W/m 0,0 km/h (0 Bft) 100,00 %
22.10.2019 23:50 11,1 C 10,0 C 10,0 C 95 % 1023,7 hPa 0,0 l/m 0 min 0 min 0 W/m 0,0 km/h (0 Bft) 97,87 %
22.10.2019 23:52 11,1 C 10,6 C 10,0 C 95 % 1023,6 hPa 0,0 l/m 0 min 0 min 0 W/m 0,0 km/h (0 Bft) 100,00 %
22.10.2019 23:54 11,1 C 10,0 C 10,0 C 95 % 1023,6 hPa 0,0 l/m 0 min 0 min 0 W/m 0,0 km/h (0 Bft) 100,00 %
22.10.2019 23:56 11,1 C 10,0 C 10,0 C 95 % 1023,6 hPa 0,0 l/m 0 min 0 min 0 W/m 0,0 km/h (0 Bft) 100,00 %
22.10.2019 23:58 11,1 C 10,0 C 10,0 C 95 % 1023,5 hPa 0,0 l/m 0 min 0 min 0 W/m 0,0 km/h (0 Bft) 100,00 %
_ Min-Zeit 23:18 19:56 19:42 15:30 00:00 - - - - 13:12 01:06
Minimum _ 11,1 C 8,9 C 8,9 C 80 % 1021,6 hPa - - - - 0,0 km/h (0 Bft) 53,49 %
_ Max-Zeit 15:22 14:30 15:02 21:28 12:42 00:00 18:08 00:00 14:26 01:28 00:00
Maximum _ 16,2 C 21,7 C 15,6 C 95 % 1025,7 hPa 0,0 l/m 4 min 0 min 606 W/m 22,5 km/h
S-SO (4 Bft)
100,00 %
Durchschnitt _ 12,9 C 12,4 C 11,7 C 88 % 1023,7 hPa #0,0 l/m #1:24 h #0 min. 113 W/m 7,3 km/h (2 Bft) 97,50 %
© 2019 W. Hausmann